Wetterdaten: Montag, 24.10.2022
Datum Zeit Temp. Aussen Temp. o. S. Temp +5cm Feuchte Auss Luftdruck Regen Sonnenschein Regendauer Solar Windben Empfang
24.10.2022 00:00 14,7 C 13,3 C 10,0 C 95 % 1007,0 hPa 0,0 l/m 0 min 0 min 0 W/m 12,9 km/h (3 Bft) 72,34 %
24.10.2022 00:02 14,7 C 13,3 C 10,6 C 95 % 1006,9 hPa 0,0 l/m 0 min 0 min 0 W/m 6,4 km/h (2 Bft) 75,61 %
24.10.2022 00:04 14,7 C 13,9 C 10,6 C 96 % 1006,9 hPa 0,0 l/m 0 min 0 min 0 W/m 12,9 km/h (3 Bft) 97,83 %
24.10.2022 00:08 14,7 C 13,9 C 10,0 C 96 % 1006,9 hPa 0,0 l/m 0 min 0 min 0 W/m 12,9 km/h (3 Bft) 90,43 %
24.10.2022 00:10 14,6 C 13,9 C 10,0 C 96 % 1006,9 hPa 0,0 l/m 0 min 0 min 0 W/m 6,4 km/h (2 Bft) 78,72 %
24.10.2022 00:12 14,6 C 13,3 C 10,0 C 96 % 1006,9 hPa 0,0 l/m 0 min 0 min 0 W/m 6,4 km/h (2 Bft) 44,68 %
24.10.2022 00:14 14,6 C 13,9 C 10,0 C 96 % 1006,9 hPa 0,0 l/m 0 min 0 min 0 W/m 12,9 km/h (3 Bft) 89,36 %
24.10.2022 00:16 14,6 C 13,3 C 10,0 C 96 % 1006,9 hPa 0,0 l/m 0 min 0 min 0 W/m 6,4 km/h (2 Bft) 93,48 %
24.10.2022 00:18 14,6 C 13,3 C 10,0 C 96 % 1006,9 hPa 0,0 l/m 0 min 0 min 0 W/m 6,4 km/h (2 Bft) 89,36 %
24.10.2022 00:20 14,6 C 13,3 C 10,0 C 96 % 1006,9 hPa 0,0 l/m 0 min 0 min 0 W/m 19,3 km/h (3 Bft) 91,49 %
24.10.2022 00:22 14,6 C 13,3 C 10,0 C 96 % 1006,9 hPa 0,0 l/m 0 min 0 min 0 W/m 6,4 km/h (2 Bft) 74,47 %
24.10.2022 00:24 14,5 C 13,3 C 10,0 C 96 % 1007,0 hPa 0,0 l/m 0 min 0 min 0 W/m 12,9 km/h (3 Bft) 72,34 %
24.10.2022 00:26 14,4 C 13,3 C 10,0 C 96 % 1007,0 hPa 0,0 l/m 0 min 0 min 0 W/m 9,7 km/h (2 Bft) 65,96 %
24.10.2022 00:28 14,4 C 13,3 C 10,0 C 96 % 1007,0 hPa 0,0 l/m 0 min 0 min 0 W/m 12,9 km/h (3 Bft) 91,30 %
24.10.2022 00:30 14,4 C 13,3 C 10,0 C 96 % 1007,0 hPa 0,0 l/m 0 min 0 min 0 W/m 6,4 km/h (2 Bft) 93,62 %
24.10.2022 00:32 14,4 C 13,3 C 10,0 C 96 % 1006,9 hPa 0,0 l/m 0 min 0 min 0 W/m 3,2 km/h (1 Bft) 93,62 %
24.10.2022 00:34 14,4 C 13,3 C 10,0 C 96 % 1006,9 hPa 0,0 l/m 0 min 0 min 0 W/m 19,3 km/h (3 Bft) 91,49 %
24.10.2022 00:36 14,4 C 13,3 C 10,0 C 96 % 1006,9 hPa 0,0 l/m 0 min 0 min 0 W/m 12,9 km/h (3 Bft) 93,62 %
24.10.2022 00:38 14,3 C 13,3 C 10,0 C 96 % 1006,9 hPa 0,0 l/m 0 min 0 min 0 W/m 6,4 km/h (2 Bft) 86,79 %
24.10.2022 00:40 14,3 C 13,3 C 10,0 C 96 % 1006,9 hPa 0,0 l/m 0 min 0 min 0 W/m 3,2 km/h (1 Bft) 87,23 %
24.10.2022 00:42 14,3 C 13,3 C 10,0 C 96 % 1006,8 hPa 0,0 l/m 0 min 0 min 0 W/m 3,2 km/h (1 Bft) 65,22 %
24.10.2022 00:44 14,3 C 13,3 C 10,0 C 96 % 1006,8 hPa 0,0 l/m 0 min 0 min 0 W/m 6,4 km/h (2 Bft) 85,11 %
24.10.2022 00:46 14,3 C 13,3 C 10,0 C 96 % 1006,9 hPa 0,0 l/m 0 min 0 min 0 W/m 6,4 km/h (2 Bft) 57,45 %
24.10.2022 00:48 14,3 C 13,3 C 10,0 C 96 % 1006,8 hPa 0,0 l/m 0 min 0 min 0 W/m 6,4 km/h (2 Bft) 53,19 %
24.10.2022 00:50 14,3 C 13,3 C 10,0 C 96 % 1006,9 hPa 0,0 l/m 0 min 0 min 0 W/m 6,4 km/h (2 Bft) 59,57 %
24.10.2022 00:52 14,3 C 13,3 C 10,0 C 96 % 1006,9 hPa 0,0 l/m 0 min 0 min 0 W/m 3,2 km/h (1 Bft) 89,36 %
24.10.2022 00:54 14,3 C 13,3 C 10,0 C 96 % 1006,8 hPa 0,0 l/m 0 min 0 min 0 W/m 3,2 km/h (1 Bft) 93,48 %
24.10.2022 00:56 14,3 C 13,3 C 10,0 C 96 % 1006,8 hPa 0,0 l/m 0 min 0 min 0 W/m 6,4 km/h (2 Bft) 34,04 %
24.10.2022 00:58 14,3 C 13,3 C 10,0 C 96 % 1006,8 hPa 0,0 l/m 0 min 0 min 0 W/m 6,4 km/h (2 Bft) 40,43 %
24.10.2022 01:00 14,3 C 13,3 C 10,0 C 96 % 1006,8 hPa 0,0 l/m 0 min 0 min 0 W/m 3,2 km/h (1 Bft) 59,57 %
24.10.2022 01:02 14,3 C 13,3 C 10,0 C 96 % 1006,8 hPa 0,0 l/m 0 min 0 min 0 W/m 3,2 km/h (1 Bft) 53,19 %
24.10.2022 01:04 14,3 C 13,3 C 10,0 C 96 % 1006,8 hPa 0,0 l/m 0 min 0 min 0 W/m 6,4 km/h (2 Bft) 72,34 %
24.10.2022 01:06 14,3 C 13,3 C 10,0 C 96 % 1006,8 hPa 0,0 l/m 0 min 0 min 0 W/m 3,2 km/h (1 Bft) 76,09 %
24.10.2022 01:08 14,3 C 13,3 C 10,0 C 96 % 1006,7 hPa 0,0 l/m 0 min 0 min 0 W/m 6,4 km/h (2 Bft) 71,05 %
24.10.2022 01:10 14,2 C 13,3 C 10,0 C 96 % 1006,7 hPa 0,0 l/m 0 min 0 min 0 W/m 3,2 km/h (1 Bft) 70,21 %
24.10.2022 01:12 14,2 C 13,3 C 10,0 C 96 % 1006,7 hPa 0,0 l/m 0 min 0 min 0 W/m 6,4 km/h (2 Bft) 80,85 %
24.10.2022 01:14 14,2 C 12,8 C 10,0 C 96 % 1006,7 hPa 0,0 l/m 0 min 0 min 0 W/m 3,2 km/h (1 Bft) 48,94 %
24.10.2022 01:16 14,2 C 13,3 C 10,0 C 96 % 1006,7 hPa 0,0 l/m 0 min 0 min 0 W/m 6,4 km/h (2 Bft) 65,96 %
24.10.2022 01:18 14,1 C 13,3 C 10,0 C 96 % 1006,7 hPa 0,0 l/m 0 min 0 min 0 W/m 6,4 km/h (2 Bft) 63,83 %
24.10.2022 01:20 14,1 C 13,3 C 10,0 C 96 % 1006,8 hPa 0,0 l/m 0 min 0 min 0 W/m 3,2 km/h (1 Bft) 71,74 %
24.10.2022 01:22 14,1 C 13,3 C 10,0 C 96 % 1006,8 hPa 0,0 l/m 0 min 0 min 0 W/m 6,4 km/h (2 Bft) 72,34 %
24.10.2022 01:24 14,1 C 13,3 C 10,0 C 96 % 1006,8 hPa 0,0 l/m 0 min 0 min 0 W/m 6,4 km/h (2 Bft) 87,23 %
24.10.2022 01:26 14,2 C 13,3 C 10,0 C 96 % 1006,8 hPa 0,0 l/m 0 min 0 min 0 W/m 16,1 km/h (3 Bft) 91,49 %
24.10.2022 01:28 14,2 C 13,3 C 10,0 C 96 % 1006,8 hPa 0,0 l/m 0 min 0 min 0 W/m 6,4 km/h (2 Bft) 93,62 %
24.10.2022 01:30 14,2 C 13,3 C 10,0 C 96 % 1006,8 hPa 0,0 l/m 0 min 0 min 0 W/m 6,4 km/h (2 Bft) 97,87 %
24.10.2022 01:32 14,2 C 13,3 C 10,0 C 96 % 1006,7 hPa 0,0 l/m 0 min 0 min 0 W/m 6,4 km/h (2 Bft) 89,13 %
24.10.2022 01:34 14,2 C 13,3 C 10,0 C 96 % 1006,8 hPa 0,0 l/m 0 min 0 min 0 W/m 19,3 km/h (3 Bft) 97,87 %
24.10.2022 01:36 14,2 C 13,3 C 10,0 C 96 % 1006,8 hPa 0,0 l/m 0 min 0 min 0 W/m 12,9 km/h (3 Bft) 100,00 %
24.10.2022 01:38 14,3 C 13,3 C 10,0 C 96 % 1006,8 hPa 0,0 l/m 0 min 0 min 0 W/m 19,3 km/h (3 Bft) 100,00 %
24.10.2022 01:40 14,3 C 13,3 C 10,0 C 96 % 1006,7 hPa 0,0 l/m 0 min 0 min 0 W/m 12,9 km/h (3 Bft) 95,74 %
24.10.2022 01:42 14,3 C 13,3 C 10,0 C 96 % 1006,7 hPa 0,0 l/m 0 min 0 min 0 W/m 16,1 km/h (3 Bft) 100,00 %
24.10.2022 01:44 14,3 C 13,3 C 10,0 C 96 % 1006,7 hPa 0,0 l/m 0 min 0 min 0 W/m 19,3 km/h (3 Bft) 100,00 %
24.10.2022 01:46 14,3 C 13,9 C 10,0 C 96 % 1006,7 hPa 0,0 l/m 0 min 0 min 0 W/m 16,1 km/h (3 Bft) 97,87 %
24.10.2022 01:48 14,3 C 13,9 C 10,0 C 96 % 1006,7 hPa 0,0 l/m 0 min 0 min 0 W/m 16,1 km/h (3 Bft) 97,87 %
24.10.2022 01:50 14,3 C 13,9 C 10,0 C 96 % 1006,7 hPa 0,0 l/m 0 min 0 min 0 W/m 16,1 km/h (3 Bft) 97,87 %
24.10.2022 01:52 14,3 C 13,9 C 10,0 C 96 % 1006,6 hPa 0,0 l/m 0 min 0 min 0 W/m 12,9 km/h (3 Bft) 100,00 %
24.10.2022 01:54 14,3 C 13,9 C 10,0 C 96 % 1006,6 hPa 0,0 l/m 0 min 0 min 0 W/m 16,1 km/h (3 Bft) 100,00 %
24.10.2022 01:56 14,3 C 13,9 C 10,0 C 96 % 1006,5 hPa 0,0 l/m 0 min 0 min 0 W/m 16,1 km/h (3 Bft) 100,00 %
24.10.2022 01:58 14,3 C 13,9 C 10,0 C 96 % 1006,5 hPa 0,0 l/m 0 min 0 min 0 W/m 12,9 km/h (3 Bft) 97,87 %
24.10.2022 02:00 14,4 C 13,9 C 10,0 C 96 % 1006,5 hPa 0,0 l/m 0 min 0 min 0 W/m 16,1 km/h (3 Bft) 100,00 %
24.10.2022 02:02 14,4 C 13,9 C 10,0 C 96 % 1006,5 hPa 0,0 l/m 0 min 0 min 0 W/m 6,4 km/h (2 Bft) 97,87 %
24.10.2022 02:04 14,4 C 13,9 C 10,0 C 96 % 1006,4 hPa 0,0 l/m 0 min 0 min 0 W/m 6,4 km/h (2 Bft) 100,00 %
24.10.2022 02:06 14,4 C 13,9 C 10,0 C 96 % 1006,4 hPa 0,0 l/m 0 min 0 min 0 W/m 6,4 km/h (2 Bft) 100,00 %
24.10.2022 02:08 14,4 C 13,9 C 10,0 C 96 % 1006,3 hPa 0,0 l/m 0 min 0 min 0 W/m 6,4 km/h (2 Bft) 100,00 %
24.10.2022 02:10 14,4 C 13,9 C 10,0 C 96 % 1006,3 hPa 0,0 l/m 0 min 0 min 0 W/m 12,9 km/h (3 Bft) 100,00 %
24.10.2022 02:12 14,4 C 13,9 C 10,0 C 95 % 1006,3 hPa 0,0 l/m 0 min 0 min 0 W/m 12,9 km/h (3 Bft) 100,00 %
24.10.2022 02:14 14,4 C 13,9 C 10,0 C 95 % 1006,4 hPa 0,0 l/m 0 min 0 min 0 W/m 6,4 km/h (2 Bft) 100,00 %
24.10.2022 02:16 14,4 C 13,9 C 10,0 C 95 % 1006,4 hPa 0,0 l/m 0 min 0 min 0 W/m 12,9 km/h (3 Bft) 93,62 %
24.10.2022 02:18 14,4 C 13,9 C 10,0 C 95 % 1006,5 hPa 0,0 l/m 0 min 0 min 0 W/m 12,9 km/h (3 Bft) 72,34 %
24.10.2022 02:20 14,4 C 13,9 C 10,0 C 95 % 1006,5 hPa 0,0 l/m 0 min 0 min 0 W/m 6,4 km/h (2 Bft) 82,98 %
24.10.2022 02:22 14,4 C 13,9 C 10,0 C 95 % 1006,5 hPa 0,0 l/m 0 min 0 min 0 W/m 12,9 km/h (3 Bft) 80,85 %
24.10.2022 02:24 14,4 C 13,9 C 10,0 C 95 % 1006,5 hPa 0,0 l/m 0 min 0 min 0 W/m 12,9 km/h (3 Bft) 100,00 %
24.10.2022 02:26 14,4 C 13,9 C 10,0 C 95 % 1006,4 hPa 0,0 l/m 0 min 0 min 0 W/m 19,3 km/h (3 Bft) 97,87 %
24.10.2022 02:28 14,4 C 13,9 C 10,0 C 95 % 1006,4 hPa 0,0 l/m 0 min 0 min 0 W/m 6,4 km/h (2 Bft) 95,74 %
24.10.2022 02:30 14,4 C 13,9 C 10,0 C 95 % 1006,4 hPa 0,0 l/m 0 min 0 min 0 W/m 9,7 km/h (2 Bft) 100,00 %
24.10.2022 02:32 14,4 C 13,9 C 10,0 C 95 % 1006,5 hPa 0,0 l/m 0 min 0 min 0 W/m 6,4 km/h (2 Bft) 97,87 %
24.10.2022 02:34 14,4 C 13,9 C 10,0 C 95 % 1006,5 hPa 0,0 l/m 0 min 0 min 0 W/m 12,9 km/h (3 Bft) 95,74 %
24.10.2022 02:36 14,4 C 13,9 C 10,0 C 95 % 1006,4 hPa 0,0 l/m 0 min 0 min 0 W/m 6,4 km/h (2 Bft) 97,83 %
24.10.2022 02:38 14,4 C 13,9 C 10,0 C 95 % 1006,3 hPa 0,0 l/m 0 min 0 min 0 W/m 6,4 km/h (2 Bft) 95,74 %
24.10.2022 02:40 14,4 C 13,3 C 10,0 C 94 % 1006,3 hPa 0,0 l/m 0 min 0 min 0 W/m 6,4 km/h (2 Bft) 95,74 %
24.10.2022 02:42 14,4 C 13,9 C 10,0 C 94 % 1006,3 hPa 0,0 l/m 0 min 0 min 0 W/m 12,9 km/h (3 Bft) 95,74 %
24.10.2022 02:44 14,4 C 13,9 C 10,0 C 94 % 1006,2 hPa 0,0 l/m 0 min 0 min 0 W/m 19,3 km/h (3 Bft) 95,74 %
24.10.2022 02:46 14,5 C 13,9 C 10,0 C 94 % 1006,2 hPa 0,0 l/m 0 min 0 min 0 W/m 16,1 km/h (3 Bft) 95,74 %
24.10.2022 02:48 14,5 C 13,9 C 10,0 C 95 % 1006,2 hPa 0,0 l/m 0 min 0 min 0 W/m 6,4 km/h (2 Bft) 95,65 %
24.10.2022 02:50 14,5 C 13,9 C 10,0 C 94 % 1006,3 hPa 0,0 l/m 0 min 0 min 0 W/m 6,4 km/h (2 Bft) 93,62 %
24.10.2022 02:52 14,5 C 13,3 C 10,0 C 94 % 1006,2 hPa 0,0 l/m 0 min 0 min 0 W/m 9,7 km/h (2 Bft) 95,74 %
24.10.2022 02:54 14,4 C 13,3 C 10,0 C 94 % 1006,1 hPa 0,0 l/m 0 min 0 min 0 W/m 6,4 km/h (2 Bft) 95,74 %
24.10.2022 02:56 14,4 C 13,3 C 10,0 C 94 % 1006,1 hPa 0,0 l/m 0 min 0 min 0 W/m 6,4 km/h (2 Bft) 91,49 %
24.10.2022 02:58 14,4 C 13,9 C 10,0 C 94 % 1006,1 hPa 0,0 l/m 0 min 0 min 0 W/m 12,9 km/h (3 Bft) 95,74 %
24.10.2022 03:00 14,4 C 13,9 C 10,0 C 94 % 1006,1 hPa 0,0 l/m 0 min 0 min 0 W/m 6,4 km/h (2 Bft) 95,65 %
24.10.2022 03:02 14,4 C 13,9 C 10,0 C 94 % 1006,0 hPa 0,0 l/m 0 min 0 min 0 W/m 12,9 km/h (3 Bft) 89,36 %
24.10.2022 03:04 14,4 C 13,9 C 10,0 C 94 % 1006,0 hPa 0,0 l/m 0 min 0 min 0 W/m 6,4 km/h (2 Bft) 93,62 %
24.10.2022 03:06 14,4 C 13,9 C 10,0 C 94 % 1006,1 hPa 0,0 l/m 0 min 0 min 0 W/m 9,7 km/h (2 Bft) 93,62 %
24.10.2022 03:08 14,4 C 13,9 C 10,0 C 94 % 1006,0 hPa 0,0 l/m 0 min 0 min 0 W/m 12,9 km/h (3 Bft) 95,74 %
24.10.2022 03:10 14,4 C 13,9 C 10,0 C 94 % 1006,0 hPa 0,0 l/m 0 min 0 min 0 W/m 12,9 km/h (3 Bft) 100,00 %
24.10.2022 03:12 14,4 C 13,9 C 10,0 C 94 % 1006,0 hPa 0,0 l/m 0 min 0 min 0 W/m 6,4 km/h (2 Bft) 97,83 %
24.10.2022 03:14 14,5 C 13,9 C 10,0 C 94 % 1006,0 hPa 0,0 l/m 0 min 0 min 0 W/m 12,9 km/h (3 Bft) 97,87 %
24.10.2022 03:16 14,5 C 13,9 C 10,0 C 94 % 1006,1 hPa 0,0 l/m 0 min 0 min 0 W/m 12,9 km/h (3 Bft) 100,00 %
24.10.2022 03:18 14,6 C 13,9 C 10,0 C 94 % 1006,0 hPa 0,0 l/m 0 min 0 min 0 W/m 3,2 km/h (1 Bft) 100,00 %
24.10.2022 03:20 14,6 C 13,9 C 10,0 C 93 % 1006,1 hPa 0,0 l/m 0 min 0 min 0 W/m 6,4 km/h (2 Bft) 100,00 %
24.10.2022 03:22 14,6 C 13,9 C 10,0 C 93 % 1006,0 hPa 0,0 l/m 0 min 0 min 0 W/m 6,4 km/h (2 Bft) 100,00 %
24.10.2022 03:24 14,5 C 13,9 C 10,0 C 93 % 1006,1 hPa 0,0 l/m 0 min 0 min 0 W/m 6,4 km/h (2 Bft) 100,00 %
24.10.2022 03:26 14,5 C 13,9 C 10,0 C 93 % 1006,1 hPa 0,0 l/m 0 min 0 min 0 W/m 3,2 km/h (1 Bft) 100,00 %
24.10.2022 03:28 14,5 C 13,9 C 10,0 C 93 % 1006,1 hPa 0,0 l/m 0 min 0 min 0 W/m 12,9 km/h (3 Bft) 100,00 %
24.10.2022 03:30 14,5 C 13,9 C 10,0 C 93 % 1006,0 hPa 0,0 l/m 0 min 0 min 0 W/m 6,4 km/h (2 Bft) 100,00 %
24.10.2022 03:32 14,5 C 13,9 C 10,0 C 93 % 1006,0 hPa 0,0 l/m 0 min 0 min 0 W/m 6,4 km/h (2 Bft) 100,00 %
24.10.2022 03:34 14,5 C 13,9 C 10,0 C 93 % 1006,0 hPa 0,0 l/m 0 min 0 min 0 W/m 6,4 km/h (2 Bft) 100,00 %
24.10.2022 03:36 14,4 C 13,9 C 10,0 C 93 % 1005,9 hPa 0,0 l/m 0 min 0 min 0 W/m 6,4 km/h (2 Bft) 100,00 %
24.10.2022 03:38 14,4 C 13,3 C 9,4 C 92 % 1005,9 hPa 0,0 l/m 0 min 0 min 0 W/m 3,2 km/h (1 Bft) 97,87 %
24.10.2022 03:40 14,4 C 13,3 C 9,4 C 92 % 1005,9 hPa 0,0 l/m 0 min 0 min 0 W/m 3,2 km/h (1 Bft) 100,00 %
24.10.2022 03:42 14,4 C 13,3 C 9,4 C 92 % 1005,9 hPa 0,0 l/m 0 min 0 min 0 W/m 6,4 km/h (2 Bft) 97,87 %
24.10.2022 03:44 14,4 C 13,3 C 9,4 C 92 % 1005,8 hPa 0,0 l/m 0 min 0 min 0 W/m 6,4 km/h (2 Bft) 97,87 %
24.10.2022 03:46 14,4 C 13,3 C 9,4 C 92 % 1005,8 hPa 0,0 l/m 0 min 0 min 0 W/m 12,9 km/h (3 Bft) 100,00 %
24.10.2022 03:48 14,4 C 13,3 C 9,4 C 93 % 1005,8 hPa 0,0 l/m 0 min 0 min 0 W/m 6,4 km/h (2 Bft) 97,87 %
24.10.2022 03:50 14,4 C 13,3 C 9,4 C 93 % 1005,8 hPa 0,0 l/m 0 min 0 min 0 W/m 16,1 km/h (3 Bft) 97,87 %
24.10.2022 03:52 14,4 C 13,3 C 9,4 C 93 % 1005,8 hPa 0,0 l/m 0 min 0 min 0 W/m 12,9 km/h (3 Bft) 95,74 %
24.10.2022 03:54 14,4 C 13,3 C 9,4 C 93 % 1005,8 hPa 0,0 l/m 0 min 0 min 0 W/m 6,4 km/h (2 Bft) 97,87 %
24.10.2022 03:56 14,3 C 13,3 C 9,4 C 93 % 1005,8 hPa 0,0 l/m 0 min 0 min 0 W/m 6,4 km/h (2 Bft) 95,74 %
24.10.2022 03:58 14,3 C 13,3 C 9,4 C 93 % 1005,7 hPa 0,0 l/m 0 min 0 min 0 W/m 9,7 km/h (2 Bft) 97,83 %
24.10.2022 04:00 14,3 C 13,3 C 10,0 C 93 % 1005,7 hPa 0,0 l/m 0 min 0 min 0 W/m 6,4 km/h (2 Bft) 97,87 %
24.10.2022 04:02 14,3 C 13,3 C 10,0 C 93 % 1005,7 hPa 0,0 l/m 0 min 0 min 0 W/m 6,4 km/h (2 Bft) 95,24 %
24.10.2022 04:04 14,3 C 13,3 C 9,4 C 93 % 1005,6 hPa 0,0 l/m 0 min 0 min 0 W/m 3,2 km/h (1 Bft) 93,62 %
24.10.2022 04:06 14,3 C 13,3 C 10,0 C 93 % 1005,7 hPa 0,0 l/m 0 min 0 min 0 W/m 6,4 km/h (2 Bft) 97,87 %
24.10.2022 04:08 14,3 C 13,3 C 10,0 C 93 % 1005,6 hPa 0,0 l/m 0 min 0 min 0 W/m 16,1 km/h (3 Bft) 96,36 %
24.10.2022 04:10 14,3 C 13,3 C 10,0 C 93 % 1005,6 hPa 0,0 l/m 0 min 0 min 0 W/m 6,4 km/h (2 Bft) 97,14 %
24.10.2022 04:12 14,3 C 13,3 C 10,0 C 93 % 1005,5 hPa 0,0 l/m 0 min 0 min 0 W/m 3,2 km/h (1 Bft) 95,74 %
24.10.2022 04:14 14,3 C 13,3 C 10,0 C 93 % 1005,4 hPa 0,0 l/m 0 min 0 min 0 W/m 6,4 km/h (2 Bft) 95,74 %
24.10.2022 04:16 14,3 C 13,3 C 10,0 C 93 % 1005,5 hPa 0,0 l/m 0 min 0 min 0 W/m 12,9 km/h (3 Bft) 97,83 %
24.10.2022 04:18 14,3 C 13,3 C 10,0 C 93 % 1005,4 hPa 0,0 l/m 0 min 0 min 0 W/m 12,9 km/h (3 Bft) 97,87 %
24.10.2022 04:20 14,3 C 13,3 C 10,0 C 93 % 1005,4 hPa 0,0 l/m 0 min 0 min 0 W/m 6,4 km/h (2 Bft) 95,74 %
24.10.2022 04:22 14,3 C 13,3 C 10,0 C 93 % 1005,4 hPa 0,0 l/m 0 min 0 min 0 W/m 6,4 km/h (2 Bft) 93,62 %
24.10.2022 04:24 14,3 C 13,3 C 10,0 C 93 % 1005,5 hPa 0,0 l/m 0 min 0 min 0 W/m 12,9 km/h (3 Bft) 97,87 %
24.10.2022 04:26 14,3 C 13,3 C 10,0 C 93 % 1005,5 hPa 0,0 l/m 0 min 0 min 0 W/m 16,1 km/h (3 Bft) 95,74 %
24.10.2022 04:28 14,3 C 13,3 C 10,0 C 93 % 1005,4 hPa 0,0 l/m 0 min 0 min 0 W/m 12,9 km/h (3 Bft) 97,83 %
24.10.2022 04:30 14,3 C 13,3 C 10,0 C 93 % 1005,5 hPa 0,0 l/m 0 min 0 min 0 W/m 12,9 km/h (3 Bft) 97,87 %
24.10.2022 04:32 14,3 C 13,3 C 10,0 C 93 % 1005,5 hPa 0,0 l/m 0 min 0 min 0 W/m 6,4 km/h (2 Bft) 91,49 %
24.10.2022 04:34 14,3 C 13,3 C 10,0 C 93 % 1005,4 hPa 0,0 l/m 0 min 0 min 0 W/m 3,2 km/h (1 Bft) 95,74 %
24.10.2022 04:36 14,3 C 13,3 C 10,0 C 93 % 1005,4 hPa 0,0 l/m 0 min 0 min 0 W/m 6,4 km/h (2 Bft) 94,83 %
24.10.2022 04:38 14,3 C 13,3 C 10,0 C 93 % 1005,5 hPa 0,0 l/m 0 min 0 min 0 W/m 6,4 km/h (2 Bft) 94,74 %
24.10.2022 04:40 14,3 C 13,3 C 10,0 C 93 % 1005,5 hPa 0,0 l/m 0 min 0 min 0 W/m 6,4 km/h (2 Bft) 95,74 %
24.10.2022 04:42 14,3 C 13,3 C 10,0 C 93 % 1005,4 hPa 0,0 l/m 0 min 0 min 0 W/m 3,2 km/h (1 Bft) 95,74 %
24.10.2022 04:44 14,3 C 13,3 C 10,0 C 93 % 1005,4 hPa 0,0 l/m 0 min 0 min 0 W/m 3,2 km/h (1 Bft) 93,62 %
24.10.2022 04:46 14,2 C 13,3 C 10,0 C 93 % 1005,4 hPa 0,0 l/m 0 min 0 min 0 W/m 3,2 km/h (1 Bft) 97,87 %
24.10.2022 04:48 14,2 C 13,3 C 10,0 C 93 % 1005,4 hPa 0,0 l/m 0 min 0 min 0 W/m 6,4 km/h (2 Bft) 95,74 %
24.10.2022 04:50 14,1 C 13,3 C 10,0 C 93 % 1005,4 hPa 0,0 l/m 0 min 0 min 0 W/m 6,4 km/h (2 Bft) 95,65 %
24.10.2022 04:52 14,1 C 12,8 C 10,0 C 93 % 1005,5 hPa 0,0 l/m 0 min 0 min 0 W/m 3,2 km/h (1 Bft) 95,74 %
24.10.2022 04:54 14,1 C 12,8 C 10,0 C 93 % 1005,5 hPa 0,0 l/m 0 min 0 min 0 W/m 6,4 km/h (2 Bft) 95,74 %
24.10.2022 04:56 14,1 C 12,8 C 10,0 C 93 % 1005,4 hPa 0,0 l/m 0 min 0 min 0 W/m 3,2 km/h (1 Bft) 91,49 %
24.10.2022 04:58 14,0 C 12,8 C 10,0 C 92 % 1005,4 hPa 0,0 l/m 0 min 0 min 0 W/m 3,2 km/h (1 Bft) 97,87 %
24.10.2022 05:00 14,0 C 12,8 C 10,0 C 93 % 1005,4 hPa 0,0 l/m 0 min 0 min 0 W/m 3,2 km/h (1 Bft) 100,00 %
24.10.2022 05:02 13,9 C 12,8 C 10,0 C 92 % 1005,4 hPa 0,0 l/m 0 min 0 min 0 W/m 3,2 km/h (1 Bft) 97,83 %
24.10.2022 05:04 13,9 C 12,8 C 10,0 C 92 % 1005,3 hPa 0,0 l/m 0 min 0 min 0 W/m 0,0 km/h (0 Bft) 95,74 %
24.10.2022 05:06 13,9 C 12,8 C 10,0 C 92 % 1005,3 hPa 0,0 l/m 0 min 0 min 0 W/m 0,0 km/h (0 Bft) 100,00 %
24.10.2022 05:08 13,9 C 12,8 C 10,0 C 92 % 1005,3 hPa 0,0 l/m 0 min 0 min 0 W/m 3,2 km/h (1 Bft) 95,74 %
24.10.2022 05:10 13,8 C 12,8 C 10,0 C 92 % 1005,3 hPa 0,0 l/m 0 min 0 min 0 W/m 0,0 km/h (0 Bft) 95,74 %
24.10.2022 05:12 13,8 C 12,8 C 9,4 C 92 % 1005,4 hPa 0,0 l/m 0 min 0 min 0 W/m 3,2 km/h (1 Bft) 97,87 %
24.10.2022 05:14 13,8 C 12,8 C 10,0 C 92 % 1005,4 hPa 0,0 l/m 0 min 0 min 0 W/m 3,2 km/h (1 Bft) 95,65 %
24.10.2022 05:16 13,8 C 12,8 C 9,4 C 92 % 1005,4 hPa 0,0 l/m 0 min 0 min 0 W/m 3,2 km/h (1 Bft) 95,74 %
24.10.2022 05:18 13,8 C 13,3 C 10,0 C 92 % 1005,4 hPa 0,0 l/m 0 min 0 min 0 W/m 3,2 km/h (1 Bft) 97,87 %
24.10.2022 05:20 13,8 C 13,3 C 10,0 C 92 % 1005,4 hPa 0,0 l/m 0 min 0 min 0 W/m 3,2 km/h (1 Bft) 95,74 %
24.10.2022 05:22 13,8 C 13,3 C 10,0 C 92 % 1005,5 hPa 0,0 l/m 0 min 0 min 0 W/m 3,2 km/h (1 Bft) 97,87 %
24.10.2022 05:24 13,8 C 13,3 C 10,0 C 92 % 1005,5 hPa 0,0 l/m 0 min 0 min 0 W/m 3,2 km/h (1 Bft) 97,87 %
24.10.2022 05:26 13,8 C 13,3 C 10,0 C 92 % 1005,5 hPa 0,0 l/m 0 min 0 min 0 W/m 3,2 km/h (1 Bft) 97,83 %
24.10.2022 05:28 13,8 C 13,3 C 10,0 C 92 % 1005,5 hPa 0,0 l/m 0 min 0 min 0 W/m 3,2 km/h (1 Bft) 97,87 %
24.10.2022 05:30 13,8 C 13,3 C 10,0 C 91 % 1005,6 hPa 0,0 l/m 0 min 0 min 0 W/m 3,2 km/h (1 Bft) 97,87 %
24.10.2022 05:32 13,8 C 13,9 C 10,6 C 91 % 1005,6 hPa 0,0 l/m 0 min 0 min 0 W/m 6,4 km/h (2 Bft) 97,87 %
24.10.2022 05:34 13,9 C 13,9 C 10,6 C 91 % 1005,6 hPa 0,0 l/m 0 min 0 min 0 W/m 3,2 km/h (1 Bft) 97,87 %
24.10.2022 05:36 13,9 C 13,9 C 10,6 C 91 % 1005,6 hPa 0,0 l/m 0 min 0 min 0 W/m 3,2 km/h (1 Bft) 97,87 %
24.10.2022 05:38 13,9 C 13,3 C 10,0 C 91 % 1005,5 hPa 0,0 l/m 0 min 0 min 0 W/m 3,2 km/h (1 Bft) 95,74 %
24.10.2022 05:40 13,9 C 13,3 C 10,0 C 91 % 1005,6 hPa 0,0 l/m 0 min 0 min 0 W/m 6,4 km/h (2 Bft) 97,87 %
24.10.2022 05:42 13,9 C 13,3 C 10,0 C 90 % 1005,7 hPa 0,0 l/m 0 min 0 min 0 W/m 3,2 km/h (1 Bft) 97,87 %
24.10.2022 05:44 13,9 C 12,8 C 10,0 C 90 % 1005,6 hPa 0,0 l/m 0 min 0 min 0 W/m 6,4 km/h (2 Bft) 97,83 %
24.10.2022 05:46 13,9 C 12,8 C 10,0 C 90 % 1005,6 hPa 0,0 l/m 0 min 0 min 0 W/m 3,2 km/h (1 Bft) 97,87 %
24.10.2022 05:48 13,9 C 12,8 C 10,0 C 90 % 1005,7 hPa 0,0 l/m 0 min 0 min 0 W/m 3,2 km/h (1 Bft) 97,87 %
24.10.2022 05:50 13,9 C 12,8 C 10,0 C 90 % 1005,7 hPa 0,0 l/m 0 min 0 min 0 W/m 3,2 km/h (1 Bft) 97,87 %
24.10.2022 05:52 13,9 C 12,8 C 10,0 C 90 % 1005,5 hPa 0,0 l/m 0 min 0 min 0 W/m 3,2 km/h (1 Bft) 100,00 %
24.10.2022 05:54 13,9 C 12,8 C 10,0 C 90 % 1005,6 hPa 0,0 l/m 0 min 0 min 0 W/m 6,4 km/h (2 Bft) 100,00 %
24.10.2022 05:56 13,8 C 12,8 C 10,0 C 90 % 1005,6 hPa 0,0 l/m 0 min 0 min 0 W/m 3,2 km/h (1 Bft) 100,00 %
24.10.2022 05:58 13,8 C 12,8 C 10,0 C 91 % 1005,5 hPa 0,0 l/m 0 min 0 min 0 W/m 3,2 km/h (1 Bft) 100,00 %
24.10.2022 06:00 13,8 C 12,8 C 9,4 C 91 % 1005,5 hPa 0,0 l/m 0 min 0 min 0 W/m 0,0 km/h (0 Bft) 100,00 %
24.10.2022 06:02 13,8 C 12,8 C 9,4 C 91 % 1005,6 hPa 0,0 l/m 0 min 0 min 0 W/m 3,2 km/h (1 Bft) 95,74 %
24.10.2022 06:04 13,7 C 12,8 C 10,0 C 91 % 1005,5 hPa 0,0 l/m 0 min 0 min 0 W/m 3,2 km/h (1 Bft) 100,00 %
24.10.2022 06:08 13,7 C 12,8 C 10,0 C 91 % 1005,5 hPa 0,0 l/m 0 min 0 min 0 W/m 9,7 km/h (2 Bft) 98,92 %
24.10.2022 06:10 13,7 C 12,8 C 9,4 C 91 % 1005,5 hPa 0,0 l/m 0 min 0 min 0 W/m 3,2 km/h (1 Bft) 100,00 %
24.10.2022 06:12 13,7 C 12,8 C 9,4 C 91 % 1005,5 hPa 0,0 l/m 0 min 0 min 0 W/m 3,2 km/h (1 Bft) 97,87 %
24.10.2022 06:14 13,7 C 12,8 C 9,4 C 91 % 1005,5 hPa 0,0 l/m 0 min 0 min 0 W/m 3,2 km/h (1 Bft) 38,30 %
24.10.2022 06:16 13,6 C 12,8 C 9,4 C 91 % 1005,5 hPa 0,0 l/m 0 min 0 min 0 W/m 3,2 km/h (1 Bft) 74,47 %
24.10.2022 06:18 13,6 C 12,8 C 9,4 C 91 % 1005,5 hPa 0,0 l/m 0 min 0 min 0 W/m 3,2 km/h (1 Bft) 95,65 %
24.10.2022 06:20 13,6 C 12,2 C 9,4 C 91 % 1005,5 hPa 0,0 l/m 0 min 0 min 0 W/m 3,2 km/h (1 Bft) 89,36 %
24.10.2022 06:22 13,6 C 12,2 C 9,4 C 91 % 1005,6 hPa 0,0 l/m 0 min 0 min 0 W/m 3,2 km/h (1 Bft) 95,74 %
24.10.2022 06:24 13,6 C 12,2 C 9,4 C 91 % 1005,6 hPa 0,0 l/m 0 min 0 min 0 W/m 3,2 km/h (1 Bft) 97,87 %
24.10.2022 06:26 13,5 C 12,2 C 9,4 C 91 % 1005,5 hPa 0,0 l/m 0 min 0 min 0 W/m 6,4 km/h (2 Bft) 97,87 %
24.10.2022 06:28 13,5 C 12,2 C 9,4 C 91 % 1005,7 hPa 0,0 l/m 0 min 0 min 0 W/m 3,2 km/h (1 Bft) 97,87 %
24.10.2022 06:30 13,5 C 12,2 C 9,4 C 91 % 1005,7 hPa 0,0 l/m 0 min 0 min 0 W/m 3,2 km/h (1 Bft) 97,83 %
24.10.2022 06:32 13,4 C 12,2 C 9,4 C 91 % 1005,7 hPa 0,0 l/m 0 min 0 min 0 W/m 3,2 km/h (1 Bft) 97,87 %
24.10.2022 06:34 13,4 C 12,2 C 9,4 C 91 % 1005,6 hPa 0,0 l/m 0 min 0 min 0 W/m 3,2 km/h (1 Bft) 97,87 %
24.10.2022 06:36 13,4 C 12,2 C 9,4 C 91 % 1005,8 hPa 0,0 l/m 0 min 0 min 0 W/m 6,4 km/h (2 Bft) 97,87 %
24.10.2022 06:38 13,4 C 12,2 C 9,4 C 92 % 1005,8 hPa 0,0 l/m 0 min 0 min 0 W/m 3,2 km/h (1 Bft) 100,00 %
24.10.2022 06:40 13,4 C 12,8 C 9,4 C 92 % 1005,8 hPa 0,0 l/m 0 min 0 min 0 W/m 3,2 km/h (1 Bft) 95,74 %
24.10.2022 06:42 13,4 C 12,8 C 9,4 C 92 % 1005,8 hPa 0,0 l/m 0 min 0 min 0 W/m 3,2 km/h (1 Bft) 95,65 %
24.10.2022 06:44 13,3 C 12,8 C 9,4 C 92 % 1005,8 hPa 0,0 l/m 0 min 0 min 0 W/m 3,2 km/h (1 Bft) 95,74 %
24.10.2022 06:46 13,3 C 12,8 C 9,4 C 92 % 1005,9 hPa 0,0 l/m 0 min 0 min 0 W/m 6,4 km/h (2 Bft) 97,87 %
24.10.2022 06:48 13,3 C 12,8 C 9,4 C 92 % 1005,8 hPa 0,0 l/m 0 min 0 min 0 W/m 3,2 km/h (1 Bft) 100,00 %
24.10.2022 06:50 13,3 C 12,8 C 9,4 C 92 % 1005,8 hPa 0,0 l/m 0 min 0 min 0 W/m 3,2 km/h (1 Bft) 100,00 %
24.10.2022 06:52 13,3 C 12,8 C 9,4 C 92 % 1005,8 hPa 0,0 l/m 0 min 0 min 0 W/m 6,4 km/h (2 Bft) 97,87 %
24.10.2022 06:54 13,3 C 12,8 C 9,4 C 92 % 1005,9 hPa 0,0 l/m 0 min 0 min 0 W/m 3,2 km/h (1 Bft) 100,00 %
24.10.2022 06:56 13,3 C 12,8 C 9,4 C 92 % 1005,9 hPa 0,0 l/m 0 min 0 min 0 W/m 3,2 km/h (1 Bft) 95,74 %
24.10.2022 06:58 13,3 C 12,2 C 9,4 C 92 % 1005,9 hPa 0,0 l/m 0 min 0 min 0 W/m 3,2 km/h (1 Bft) 97,87 %
24.10.2022 07:00 13,3 C 12,8 C 9,4 C 92 % 1006,0 hPa 0,0 l/m 0 min 0 min 0 W/m 6,4 km/h (2 Bft) 97,87 %
24.10.2022 07:02 13,3 C 12,8 C 9,4 C 92 % 1005,9 hPa 0,0 l/m 0 min 0 min 0 W/m 3,2 km/h (1 Bft) 95,74 %
24.10.2022 07:04 13,3 C 12,8 C 9,4 C 92 % 1006,0 hPa 0,0 l/m 0 min 0 min 0 W/m 3,2 km/h (1 Bft) 97,87 %
24.10.2022 07:06 13,3 C 12,8 C 10,0 C 92 % 1005,9 hPa 0,0 l/m 0 min 0 min 0 W/m 3,2 km/h (1 Bft) 97,83 %
24.10.2022 07:08 13,3 C 12,8 C 10,0 C 91 % 1005,9 hPa 0,0 l/m 0 min 0 min 0 W/m 3,2 km/h (1 Bft) 93,62 %
24.10.2022 07:10 13,3 C 12,8 C 9,4 C 92 % 1005,9 hPa 0,0 l/m 0 min 0 min 0 W/m 0,0 km/h (0 Bft) 97,87 %
24.10.2022 07:12 13,3 C 12,8 C 10,0 C 92 % 1005,9 hPa 0,0 l/m 0 min 0 min 0 W/m 3,2 km/h (1 Bft) 97,87 %
24.10.2022 07:14 13,3 C 12,8 C 9,4 C 92 % 1006,0 hPa 0,0 l/m 0 min 0 min 0 W/m 3,2 km/h (1 Bft) 95,74 %
24.10.2022 07:16 13,3 C 12,8 C 9,4 C 91 % 1005,9 hPa 0,0 l/m 0 min 0 min 0 W/m 3,2 km/h (1 Bft) 97,87 %
24.10.2022 07:18 13,4 C 13,3 C 10,0 C 91 % 1005,9 hPa 0,0 l/m 0 min 0 min 0 W/m 6,4 km/h (2 Bft) 95,65 %
24.10.2022 07:20 13,4 C 13,3 C 10,0 C 91 % 1005,9 hPa 0,0 l/m 0 min 0 min 0 W/m 3,2 km/h (1 Bft) 97,87 %
24.10.2022 07:22 13,4 C 13,3 C 10,0 C 91 % 1006,0 hPa 0,0 l/m 0 min 0 min 0 W/m 0,0 km/h (0 Bft) 97,87 %
24.10.2022 07:24 13,4 C 13,3 C 10,0 C 91 % 1006,0 hPa 0,0 l/m 0 min 0 min 0 W/m 3,2 km/h (1 Bft) 97,87 %
24.10.2022 07:26 13,4 C 12,8 C 10,0 C 91 % 1006,0 hPa 0,0 l/m 0 min 0 min 0 W/m 3,2 km/h (1 Bft) 97,87 %
24.10.2022 07:28 13,4 C 12,8 C 10,0 C 91 % 1006,0 hPa 0,0 l/m 0 min 0 min 0 W/m 6,4 km/h (2 Bft) 97,83 %
24.10.2022 07:30 13,4 C 12,8 C 10,0 C 91 % 1006,1 hPa 0,0 l/m 0 min 0 min 0 W/m 3,2 km/h (1 Bft) 97,87 %
24.10.2022 07:32 13,4 C 12,8 C 10,0 C 90 % 1006,1 hPa 0,0 l/m 0 min 0 min 0 W/m 3,2 km/h (1 Bft) 93,62 %
24.10.2022 07:34 13,4 C 12,8 C 10,0 C 90 % 1006,1 hPa 0,0 l/m 0 min 0 min 0 W/m 3,2 km/h (1 Bft) 97,87 %
24.10.2022 07:36 13,4 C 12,8 C 10,0 C 90 % 1006,1 hPa 0,0 l/m 0 min 0 min 0 W/m 6,4 km/h (2 Bft) 95,74 %
24.10.2022 07:38 13,5 C 12,8 C 10,0 C 90 % 1006,1 hPa 0,0 l/m 0 min 0 min 0 W/m 6,4 km/h (2 Bft) 97,87 %
24.10.2022 07:40 13,5 C 12,8 C 10,0 C 90 % 1006,0 hPa 0,0 l/m 0 min 0 min 0 W/m 6,4 km/h (2 Bft) 95,65 %
24.10.2022 07:42 13,4 C 12,8 C 9,4 C 90 % 1006,0 hPa 0,0 l/m 0 min 0 min 0 W/m 3,2 km/h (1 Bft) 95,74 %
24.10.2022 07:44 13,5 C 12,8 C 9,4 C 90 % 1006,0 hPa 0,0 l/m 0 min 0 min 0 W/m 3,2 km/h (1 Bft) 95,74 %
24.10.2022 07:46 13,4 C 12,8 C 9,4 C 90 % 1006,0 hPa 0,0 l/m 0 min 0 min 0 W/m 6,4 km/h (2 Bft) 95,74 %
24.10.2022 07:48 13,4 C 12,8 C 9,4 C 90 % 1006,0 hPa 0,0 l/m 0 min 0 min 0 W/m 3,2 km/h (1 Bft) 95,74 %
24.10.2022 07:50 13,4 C 12,8 C 9,4 C 90 % 1006,0 hPa 0,0 l/m 0 min 0 min 0 W/m 6,4 km/h (2 Bft) 93,62 %
24.10.2022 07:52 13,4 C 12,8 C 9,4 C 90 % 1006,1 hPa 0,0 l/m 0 min 0 min 0 W/m 6,4 km/h (2 Bft) 97,83 %
24.10.2022 07:54 13,4 C 12,8 C 9,4 C 90 % 1006,1 hPa 0,0 l/m 0 min 0 min 0 W/m 6,4 km/h (2 Bft) 95,74 %
24.10.2022 07:56 13,4 C 12,8 C 9,4 C 90 % 1006,0 hPa 0,0 l/m 0 min 0 min 0 W/m 6,4 km/h (2 Bft) 95,74 %
24.10.2022 07:58 13,4 C 12,8 C 9,4 C 90 % 1006,1 hPa 0,0 l/m 0 min 0 min 0 W/m 3,2 km/h (1 Bft) 95,74 %
24.10.2022 08:00 13,4 C 12,8 C 9,4 C 91 % 1006,2 hPa 0,0 l/m 0 min 0 min 0 W/m 12,9 km/h (3 Bft) 97,87 %
24.10.2022 08:02 13,4 C 12,8 C 10,0 C 91 % 1006,1 hPa 0,0 l/m 0 min 0 min 0 W/m 6,4 km/h (2 Bft) 95,74 %
24.10.2022 08:04 13,4 C 12,8 C 10,0 C 90 % 1006,2 hPa 0,0 l/m 0 min 0 min 0 W/m 3,2 km/h (1 Bft) 97,83 %
24.10.2022 08:06 13,4 C 12,8 C 9,4 C 90 % 1006,2 hPa 0,0 l/m 0 min 0 min 0 W/m 3,2 km/h (1 Bft) 93,62 %
24.10.2022 08:08 13,4 C 12,8 C 9,4 C 90 % 1006,3 hPa 0,0 l/m 0 min 0 min 0 W/m 6,4 km/h (2 Bft) 95,74 %
24.10.2022 08:10 13,4 C 12,8 C 9,4 C 90 % 1006,3 hPa 0,0 l/m 0 min 0 min 0 W/m 0,0 km/h (0 Bft) 93,62 %
24.10.2022 08:12 13,4 C 12,8 C 9,4 C 90 % 1006,3 hPa 0,0 l/m 0 min 0 min 0 W/m 0,0 km/h (0 Bft) 95,74 %
24.10.2022 08:14 13,4 C 12,8 C 10,0 C 90 % 1006,2 hPa 0,0 l/m 0 min 0 min 0 W/m 3,2 km/h (1 Bft) 93,62 %
24.10.2022 08:16 13,4 C 12,8 C 10,0 C 90 % 1006,2 hPa 0,0 l/m 0 min 0 min 0 W/m 3,2 km/h (1 Bft) 95,65 %
24.10.2022 08:18 13,5 C 12,8 C 10,0 C 90 % 1006,2 hPa 0,0 l/m 0 min 0 min 0 W/m 3,2 km/h (1 Bft) 95,74 %
24.10.2022 08:20 13,5 C 12,8 C 10,0 C 90 % 1006,3 hPa 0,0 l/m 0 min 0 min 0 W/m 3,2 km/h (1 Bft) 93,62 %
24.10.2022 08:22 13,5 C 12,8 C 10,0 C 90 % 1006,3 hPa 0,0 l/m 0 min 0 min 0 W/m 3,2 km/h (1 Bft) 95,74 %
24.10.2022 08:24 13,5 C 12,8 C 10,0 C 90 % 1006,3 hPa 0,0 l/m 0 min 0 min 1 W/m 3,2 km/h (1 Bft) 95,74 %
24.10.2022 08:26 13,5 C 12,8 C 10,0 C 90 % 1006,4 hPa 0,0 l/m 0 min 0 min 5 W/m 16,1 km/h (3 Bft) 95,74 %
24.10.2022 08:28 13,6 C 12,8 C 10,0 C 90 % 1006,3 hPa 0,0 l/m 0 min 0 min 5 W/m 3,2 km/h (1 Bft) 95,65 %
24.10.2022 08:30 13,6 C 12,8 C 10,0 C 90 % 1006,3 hPa 0,0 l/m 0 min 0 min 5 W/m 3,2 km/h (1 Bft) 97,87 %
24.10.2022 08:32 13,6 C 13,3 C 10,0 C 89 % 1006,4 hPa 0,0 l/m 0 min 0 min 7 W/m 3,2 km/h (1 Bft) 97,87 %
24.10.2022 08:34 13,6 C 13,3 C 10,0 C 89 % 1006,4 hPa 0,0 l/m 0 min 0 min 7 W/m 6,4 km/h (2 Bft) 97,87 %
24.10.2022 08:36 13,6 C 13,3 C 10,0 C 89 % 1006,4 hPa 0,0 l/m 0 min 0 min 7 W/m 3,2 km/h (1 Bft) 97,87 %
24.10.2022 08:38 13,7 C 13,3 C 10,0 C 89 % 1006,4 hPa 0,0 l/m 0 min 0 min 7 W/m 12,9 km/h (3 Bft) 98,15 %
24.10.2022 08:40 13,7 C 13,3 C 10,0 C 89 % 1006,5 hPa 0,0 l/m 0 min 0 min 9 W/m 6,4 km/h (2 Bft) 100,00 %
24.10.2022 08:42 13,8 C 13,3 C 10,0 C 89 % 1006,4 hPa 0,0 l/m 0 min 0 min 10 W/m 3,2 km/h (1 Bft) 100,00 %
24.10.2022 08:44 13,8 C 13,3 C 10,0 C 89 % 1006,4 hPa 0,0 l/m 0 min 0 min 11 W/m 12,9 km/h (3 Bft) 100,00 %
24.10.2022 08:46 13,8 C 13,3 C 10,0 C 88 % 1006,5 hPa 0,0 l/m 0 min 0 min 11 W/m 16,1 km/h (3 Bft) 100,00 %
24.10.2022 08:48 13,9 C 13,9 C 10,0 C 88 % 1006,5 hPa 0,0 l/m 0 min 0 min 12 W/m 3,2 km/h (1 Bft) 100,00 %
24.10.2022 08:50 14,0 C 13,9 C 10,6 C 88 % 1006,5 hPa 0,0 l/m 0 min 0 min 13 W/m 9,7 km/h (2 Bft) 100,00 %
24.10.2022 08:52 14,1 C 13,9 C 10,6 C 88 % 1006,6 hPa 0,0 l/m 0 min 0 min 12 W/m 12,9 km/h (3 Bft) 100,00 %
24.10.2022 08:54 14,1 C 13,9 C 10,6 C 88 % 1006,6 hPa 0,0 l/m 0 min 0 min 14 W/m 6,4 km/h (2 Bft) 100,00 %
24.10.2022 08:56 14,2 C 13,9 C 10,6 C 88 % 1006,5 hPa 0,0 l/m 0 min 0 min 13 W/m 3,2 km/h (1 Bft) 95,74 %
24.10.2022 08:58 14,3 C 13,9 C 10,6 C 88 % 1006,4 hPa 0,0 l/m 0 min 0 min 14 W/m 6,4 km/h (2 Bft) 100,00 %
24.10.2022 09:00 14,3 C 13,9 C 10,6 C 88 % 1006,5 hPa 0,0 l/m 0 min 0 min 16 W/m 22,5 km/h (4 Bft) 95,74 %
24.10.2022 09:02 14,3 C 14,4 C 10,6 C 87 % 1006,4 hPa 0,0 l/m 0 min 0 min 17 W/m 25,7 km/h (4 Bft) 97,87 %
24.10.2022 09:04 14,5 C 14,4 C 10,6 C 87 % 1006,4 hPa 0,0 l/m 0 min 0 min 19 W/m 12,9 km/h (3 Bft) 100,00 %
24.10.2022 09:06 14,6 C 14,4 C 10,6 C 86 % 1006,6 hPa 0,0 l/m 0 min 0 min 20 W/m 38,6 km/h (5 Bft) 100,00 %
24.10.2022 09:08 14,7 C 14,4 C 11,1 C 86 % 1006,5 hPa 0,0 l/m 0 min 0 min 22 W/m 29,0 km/h (5 Bft) 100,00 %
24.10.2022 09:10 14,8 C 14,4 C 11,1 C 86 % 1006,5 hPa 0,0 l/m 0 min 0 min 23 W/m 19,3 km/h (3 Bft) 100,00 %
24.10.2022 09:12 14,9 C 14,4 C 11,1 C 85 % 1006,7 hPa 0,0 l/m 0 min 0 min 25 W/m 25,7 km/h (4 Bft) 97,87 %
24.10.2022 09:14 15,0 C 14,4 C 11,1 C 85 % 1006,6 hPa 0,0 l/m 0 min 0 min 25 W/m 19,3 km/h (3 Bft) 100,00 %
24.10.2022 09:16 15,1 C 14,4 C 11,1 C 84 % 1006,6 hPa 0,0 l/m 0 min 0 min 25 W/m 12,9 km/h (3 Bft) 100,00 %
24.10.2022 09:18 15,2 C 15,0 C 11,1 C 84 % 1006,6 hPa 0,0 l/m 0 min 0 min 25 W/m 12,9 km/h (3 Bft) 100,00 %
24.10.2022 09:20 15,2 C 14,4 C 11,1 C 84 % 1006,7 hPa 0,0 l/m 0 min 0 min 25 W/m 12,9 km/h (3 Bft) 97,87 %
24.10.2022 09:22 15,2 C 14,4 C 11,1 C 84 % 1006,7 hPa 0,0 l/m 0 min 0 min 25 W/m 29,0 km/h (5 Bft) 100,00 %
24.10.2022 09:24 15,3 C 14,4 C 11,1 C 84 % 1006,8 hPa 0,0 l/m 0 min 0 min 25 W/m 35,4 km/h (5 Bft) 97,87 %
24.10.2022 09:26 15,3 C 15,0 C 11,1 C 84 % 1006,8 hPa 0,0 l/m 0 min 0 min 24 W/m 12,9 km/h (3 Bft) 100,00 %
24.10.2022 09:28 15,3 C 15,0 C 11,1 C 83 % 1006,8 hPa 0,0 l/m 0 min 0 min 24 W/m 19,3 km/h (3 Bft) 100,00 %
24.10.2022 09:30 15,4 C 15,0 C 11,1 C 83 % 1006,8 hPa 0,0 l/m 0 min 0 min 24 W/m 12,9 km/h (3 Bft) 100,00 %
24.10.2022 09:32 15,4 C 14,4 C 11,1 C 83 % 1006,9 hPa 0,0 l/m 0 min 0 min 27 W/m 12,9 km/h (3 Bft) 100,00 %
24.10.2022 09:34 15,4 C 14,4 C 11,1 C 83 % 1006,9 hPa 0,0 l/m 0 min 0 min 33 W/m 6,4 km/h (2 Bft) 100,00 %
24.10.2022 09:36 15,4 C 15,0 C 11,1 C 83 % 1007,0 hPa 0,0 l/m 0 min 0 min 33 W/m 12,9 km/h (3 Bft) 97,87 %
24.10.2022 09:38 15,5 C 15,0 C 11,1 C 83 % 1006,8 hPa 0,0 l/m 0 min 0 min 32 W/m 22,5 km/h (4 Bft) 100,00 %
24.10.2022 09:40 15,5 C 15,0 C 11,1 C 83 % 1006,9 hPa 0,0 l/m 0 min 0 min 32 W/m 25,7 km/h (4 Bft) 100,00 %
24.10.2022 09:42 15,6 C 15,0 C 11,1 C 83 % 1006,9 hPa 0,0 l/m 0 min 0 min 33 W/m 19,3 km/h (3 Bft) 100,00 %
24.10.2022 09:44 15,6 C 15,0 C 11,1 C 83 % 1006,9 hPa 0,0 l/m 0 min 0 min 37 W/m 25,7 km/h (4 Bft) 100,00 %
24.10.2022 09:46 15,6 C 15,0 C 11,7 C 83 % 1006,8 hPa 0,0 l/m 0 min 0 min 41 W/m 22,5 km/h (4 Bft) 100,00 %
24.10.2022 09:48 15,7 C 15,0 C 11,7 C 83 % 1007,0 hPa 0,0 l/m 0 min 0 min 47 W/m 32,2 km/h (5 Bft) 100,00 %
24.10.2022 09:50 15,7 C 15,0 C 11,7 C 83 % 1007,0 hPa 0,0 l/m 0 min 0 min 63 W/m 16,1 km/h (3 Bft) 97,87 %
24.10.2022 09:52 15,8 C 15,6 C 11,7 C 83 % 1007,0 hPa 0,0 l/m 0 min 0 min 60 W/m 25,7 km/h (4 Bft) 100,00 %
24.10.2022 09:54 15,8 C 15,6 C 11,7 C 83 % 1007,0 hPa 0,0 l/m 0 min 0 min 51 W/m 16,1 km/h (3 Bft) 97,87 %
24.10.2022 09:56 15,8 C 15,6 C 11,7 C 83 % 1007,1 hPa 0,0 l/m 0 min 0 min 52 W/m 45,1 km/h (6 Bft) 97,87 %
24.10.2022 09:58 15,9 C 15,6 C 11,7 C 82 % 1007,1 hPa 0,0 l/m 0 min 0 min 58 W/m 32,2 km/h (5 Bft) 95,74 %
24.10.2022 10:00 16,0 C 15,6 C 11,7 C 82 % 1007,1 hPa 0,0 l/m 0 min 0 min 48 W/m 35,4 km/h (5 Bft) 95,74 %
24.10.2022 10:02 16,0 C 15,6 C 11,7 C 82 % 1007,1 hPa 0,0 l/m 0 min 0 min 52 W/m 35,4 km/h (5 Bft) 97,87 %
24.10.2022 10:04 16,1 C 15,6 C 11,7 C 82 % 1007,1 hPa 0,0 l/m 0 min 0 min 46 W/m 29,0 km/h (5 Bft) 97,83 %
24.10.2022 10:06 16,1 C 15,6 C 11,7 C 82 % 1007,1 hPa 0,0 l/m 0 min 0 min 39 W/m 22,5 km/h (4 Bft) 93,62 %
24.10.2022 10:08 16,1 C 15,6 C 11,7 C 82 % 1007,0 hPa 0,0 l/m 0 min 0 min 39 W/m 45,1 km/h (6 Bft) 93,62 %
24.10.2022 10:10 16,1 C 15,6 C 12,2 C 81 % 1007,1 hPa 0,0 l/m 0 min 0 min 39 W/m 32,2 km/h (5 Bft) 95,74 %
24.10.2022 10:12 16,2 C 15,6 C 12,2 C 81 % 1007,1 hPa 0,0 l/m 0 min 0 min 41 W/m 35,4 km/h (5 Bft) 95,74 %
24.10.2022 10:14 16,2 C 15,6 C 12,2 C 81 % 1007,0 hPa 0,0 l/m 0 min 0 min 45 W/m 32,2 km/h (5 Bft) 95,65 %
24.10.2022 10:16 16,2 C 15,6 C 12,2 C 81 % 1007,1 hPa 0,0 l/m 0 min 0 min 48 W/m 38,6 km/h (5 Bft) 93,62 %
24.10.2022 10:18 16,2 C 15,6 C 12,2 C 81 % 1007,1 hPa 0,0 l/m 0 min 0 min 46 W/m 38,6 km/h (5 Bft) 91,49 %
24.10.2022 10:20 16,3 C 15,6 C 12,2 C 81 % 1007,0 hPa 0,0 l/m 0 min 0 min 40 W/m 38,6 km/h (5 Bft) 93,62 %
24.10.2022 10:22 16,3 C 15,6 C 12,2 C 81 % 1007,0 hPa 0,0 l/m 0 min 0 min 49 W/m 38,6 km/h (5 Bft) 93,62 %
24.10.2022 10:24 16,3 C 15,6 C 12,2 C 80 % 1007,0 hPa 0,0 l/m 0 min 0 min 52 W/m 22,5 km/h (4 Bft) 97,87 %
24.10.2022 10:26 16,4 C 15,6 C 12,2 C 80 % 1007,0 hPa 0,0 l/m 0 min 0 min 49 W/m 35,4 km/h (5 Bft) 93,48 %
24.10.2022 10:28 16,4 C 15,6 C 12,2 C 80 % 1007,0 hPa 0,0 l/m 0 min 0 min 53 W/m 25,7 km/h (4 Bft) 93,62 %
24.10.2022 10:30 16,4 C 15,6 C 12,2 C 80 % 1007,0 hPa 0,0 l/m 0 min 0 min 51 W/m 25,7 km/h (4 Bft) 95,74 %
24.10.2022 10:32 16,4 C 15,6 C 12,2 C 80 % 1007,0 hPa 0,0 l/m 0 min 0 min 45 W/m 25,7 km/h (4 Bft) 93,62 %
24.10.2022 10:34 16,4 C 15,6 C 12,2 C 80 % 1007,0 hPa 0,0 l/m 0 min 0 min 52 W/m 32,2 km/h (5 Bft) 93,62 %
24.10.2022 10:36 16,5 C 16,1 C 12,2 C 80 % 1007,0 hPa 0,0 l/m 0 min 0 min 66 W/m 25,7 km/h (4 Bft) 91,49 %
24.10.2022 10:38 16,5 C 16,1 C 12,2 C 80 % 1007,0 hPa 0,0 l/m 0 min 0 min 71 W/m 29,0 km/h (5 Bft) 94,74 %
24.10.2022 10:40 16,6 C 16,1 C 12,2 C 79 % 1007,1 hPa 0,0 l/m 0 min 0 min 74 W/m 32,2 km/h (5 Bft) 95,74 %
24.10.2022 10:42 16,6 C 16,1 C 12,2 C 79 % 1007,1 hPa 0,0 l/m 0 min 0 min 74 W/m 22,5 km/h (4 Bft) 97,83 %
24.10.2022 10:44 16,6 C 16,1 C 12,2 C 80 % 1007,1 hPa 0,0 l/m 0 min 0 min 65 W/m 22,5 km/h (4 Bft) 97,87 %
24.10.2022 10:46 16,6 C 16,1 C 12,2 C 80 % 1007,1 hPa 0,0 l/m 0 min 0 min 64 W/m 22,5 km/h (4 Bft) 95,74 %
24.10.2022 10:48 16,7 C 16,1 C 12,2 C 80 % 1007,1 hPa 0,0 l/m 0 min 0 min 70 W/m 32,2 km/h (5 Bft) 97,87 %
24.10.2022 10:50 16,7 C 16,1 C 12,2 C 80 % 1007,1 hPa 0,0 l/m 0 min 0 min 74 W/m 16,1 km/h (3 Bft) 97,87 %
24.10.2022 10:52 16,7 C 16,1 C 12,2 C 80 % 1007,1 hPa 0,0 l/m 0 min 0 min 91 W/m 22,5 km/h (4 Bft) 97,83 %
24.10.2022 10:54 16,7 C 16,1 C 12,2 C 80 % 1007,1 hPa 0,0 l/m 0 min 0 min 105 W/m 29,0 km/h (5 Bft) 95,74 %
24.10.2022 10:56 16,7 C 16,1 C 12,2 C 80 % 1007,2 hPa 0,0 l/m 0 min 0 min 91 W/m 25,7 km/h (4 Bft) 95,74 %
24.10.2022 10:58 16,7 C 16,1 C 12,2 C 79 % 1007,2 hPa 0,0 l/m 0 min 0 min 84 W/m 25,7 km/h (4 Bft) 97,87 %
24.10.2022 11:00 16,8 C 16,7 C 12,8 C 79 % 1007,3 hPa 0,0 l/m 0 min 0 min 119 W/m 32,2 km/h (5 Bft) 97,87 %
24.10.2022 11:02 16,8 C 16,7 C 12,8 C 79 % 1007,3 hPa 0,0 l/m 0 min 0 min 127 W/m 22,5 km/h (4 Bft) 97,87 %
24.10.2022 11:04 16,8 C 16,7 C 12,8 C 79 % 1007,3 hPa 0,0 l/m 0 min 0 min 113 W/m 38,6 km/h (5 Bft) 97,83 %
24.10.2022 11:06 16,9 C 16,7 C 12,8 C 79 % 1007,2 hPa 0,0 l/m 0 min 0 min 66 W/m 32,2 km/h (5 Bft) 98,31 %
24.10.2022 11:08 16,9 C 16,1 C 12,8 C 79 % 1007,3 hPa 0,0 l/m 0 min 0 min 48 W/m 25,7 km/h (4 Bft) 97,30 %
24.10.2022 11:10 16,9 C 16,1 C 12,8 C 79 % 1007,3 hPa 0,0 l/m 0 min 0 min 52 W/m 22,5 km/h (4 Bft) 97,83 %
24.10.2022 11:12 16,9 C 16,1 C 12,8 C 79 % 1007,3 hPa 0,0 l/m 0 min 0 min 38 W/m 38,6 km/h (5 Bft) 97,87 %
24.10.2022 11:14 16,9 C 16,1 C 12,8 C 79 % 1007,3 hPa 0,0 l/m 0 min 0 min 45 W/m 32,2 km/h (5 Bft) 97,87 %
24.10.2022 11:16 16,9 C 16,1 C 12,8 C 79 % 1007,3 hPa 0,0 l/m 0 min 0 min 46 W/m 32,2 km/h (5 Bft) 95,74 %
24.10.2022 11:18 16,9 C 16,1 C 12,8 C 79 % 1007,4 hPa 0,0 l/m 0 min 0 min 64 W/m 25,7 km/h (4 Bft) 97,87 %
24.10.2022 11:20 16,9 C 16,1 C 12,2 C 79 % 1007,4 hPa 0,0 l/m 0 min 0 min 76 W/m 16,1 km/h (3 Bft) 100,00 %
24.10.2022 11:22 16,9 C 16,1 C 12,8 C 79 % 1007,4 hPa 0,0 l/m 0 min 0 min 114 W/m 16,1 km/h (3 Bft) 100,00 %
24.10.2022 11:24 16,9 C 16,7 C 12,8 C 79 % 1007,4 hPa 0,0 l/m 0 min 0 min 111 W/m 29,0 km/h (5 Bft) 100,00 %
24.10.2022 11:26 17,0 C 17,8 C 12,8 C 79 % 1007,5 hPa 0,0 l/m 0 min 0 min 125 W/m 29,0 km/h (5 Bft) 97,87 %
24.10.2022 11:28 17,1 C 19,4 C 12,8 C 79 % 1007,5 hPa 0,0 l/m 2 min 0 min 294 W/m 32,2 km/h (5 Bft) 100,00 %
24.10.2022 11:30 17,2 C 21,1 C 13,3 C 79 % 1007,5 hPa 0,0 l/m 2 min 0 min 504 W/m 19,3 km/h (3 Bft) 100,00 %
24.10.2022 11:32 17,3 C 20,0 C 13,3 C 78 % 1007,5 hPa 0,0 l/m 2 min 0 min 390 W/m 35,4 km/h (5 Bft) 97,87 %
24.10.2022 11:34 17,4 C 18,3 C 13,3 C 78 % 1007,4 hPa 0,0 l/m 0 min 0 min 166 W/m 29,0 km/h (5 Bft) 100,00 %
24.10.2022 11:36 17,5 C 17,8 C 13,3 C 78 % 1007,6 hPa 0,0 l/m 0 min 0 min 171 W/m 16,1 km/h (3 Bft) 97,87 %
24.10.2022 11:38 17,5 C 17,8 C 13,3 C 78 % 1007,5 hPa 0,0 l/m 0 min 0 min 149 W/m 25,7 km/h (4 Bft) 100,00 %
24.10.2022 11:40 17,5 C 17,8 C 13,3 C 77 % 1007,6 hPa 0,0 l/m 0 min 0 min 161 W/m 22,5 km/h (4 Bft) 100,00 %
24.10.2022 11:42 17,6 C 17,8 C 13,3 C 77 % 1007,6 hPa 0,0 l/m 0 min 0 min 156 W/m 32,2 km/h (5 Bft) 100,00 %
24.10.2022 11:44 17,6 C 17,2 C 13,3 C 77 % 1007,6 hPa 0,0 l/m 0 min 0 min 142 W/m 22,5 km/h (4 Bft) 100,00 %
24.10.2022 11:46 17,6 C 17,2 C 13,3 C 77 % 1007,6 hPa 0,0 l/m 0 min 0 min 110 W/m 35,4 km/h (5 Bft) 100,00 %
24.10.2022 11:48 17,6 C 17,2 C 13,3 C 77 % 1007,6 hPa 0,0 l/m 0 min 0 min 103 W/m 32,2 km/h (5 Bft) 100,00 %
24.10.2022 11:50 17,5 C 17,2 C 13,3 C 77 % 1007,7 hPa 0,0 l/m 0 min 0 min 128 W/m 29,0 km/h (5 Bft) 100,00 %
24.10.2022 11:52 17,5 C 17,2 C 13,3 C 77 % 1007,6 hPa 0,0 l/m 0 min 0 min 148 W/m 25,7 km/h (4 Bft) 97,87 %
24.10.2022 11:54 17,5 C 17,2 C 13,3 C 78 % 1007,6 hPa 0,0 l/m 0 min 0 min 115 W/m 29,0 km/h (5 Bft) 100,00 %
24.10.2022 11:56 17,5 C 17,2 C 13,3 C 78 % 1007,6 hPa 0,0 l/m 0 min 0 min 132 W/m 16,1 km/h (3 Bft) 97,87 %
24.10.2022 11:58 17,5 C 17,2 C 13,3 C 78 % 1007,7 hPa 0,0 l/m 0 min 0 min 132 W/m 16,1 km/h (3 Bft) 100,00 %
24.10.2022 12:00 17,5 C 17,2 C 13,3 C 78 % 1007,7 hPa 0,0 l/m 0 min 0 min 103 W/m 12,9 km/h (3 Bft) 100,00 %
24.10.2022 12:02 17,4 C 17,2 C 13,3 C 78 % 1007,7 hPa 0,0 l/m 0 min 0 min 133 W/m 19,3 km/h (3 Bft) 97,87 %
24.10.2022 12:04 17,4 C 17,2 C 13,3 C 78 % 1007,7 hPa 0,0 l/m 0 min 0 min 181 W/m 35,4 km/h (5 Bft) 100,00 %
24.10.2022 12:08 17,6 C 17,2 C 13,3 C 78 % 1007,7 hPa 0,0 l/m 0 min 0 min 150 W/m 35,4 km/h (5 Bft) 98,00 %
24.10.2022 12:10 17,6 C 17,2 C 13,3 C 77 % 1007,8 hPa 0,0 l/m 0 min 0 min 134 W/m 29,0 km/h (5 Bft) 97,87 %
24.10.2022 12:12 17,6 C 17,2 C 13,3 C 77 % 1007,8 hPa 0,0 l/m 0 min 0 min 124 W/m 38,6 km/h (5 Bft) 97,83 %
24.10.2022 12:14 17,6 C 17,2 C 13,3 C 76 % 1007,8 hPa 0,0 l/m 0 min 0 min 138 W/m 48,3 km/h (6 Bft) 97,87 %
24.10.2022 12:16 17,6 C 17,2 C 13,3 C 77 % 1007,8 hPa 0,0 l/m 0 min 0 min 121 W/m 22,5 km/h (4 Bft) 95,74 %
24.10.2022 12:18 17,6 C 16,7 C 13,3 C 77 % 1007,9 hPa 0,0 l/m 0 min 0 min 84 W/m 25,7 km/h (4 Bft) 97,87 %
24.10.2022 12:20 17,6 C 16,7 C 13,3 C 77 % 1007,8 hPa 0,0 l/m 0 min 0 min 86 W/m 35,4 km/h (5 Bft) 95,74 %
24.10.2022 12:22 17,5 C 16,7 C 13,3 C 77 % 1007,9 hPa 0,0 l/m 0 min 0 min 98 W/m 35,4 km/h (5 Bft) 97,87 %
24.10.2022 12:24 17,5 C 16,7 C 12,8 C 77 % 1007,9 hPa 0,0 l/m 0 min 0 min 85 W/m 29,0 km/h (5 Bft) 97,83 %
24.10.2022 12:26 17,5 C 16,7 C 12,8 C 77 % 1007,9 hPa 0,0 l/m 0 min 0 min 84 W/m 22,5 km/h (4 Bft) 97,87 %
24.10.2022 12:28 17,5 C 16,7 C 12,8 C 77 % 1008,1 hPa 0,0 l/m 0 min 0 min 84 W/m 32,2 km/h (5 Bft) 97,87 %
24.10.2022 12:30 17,5 C 16,7 C 12,8 C 77 % 1008,0 hPa 0,0 l/m 0 min 0 min 93 W/m 19,3 km/h (3 Bft) 97,87 %
24.10.2022 12:32 17,5 C 16,7 C 13,3 C 77 % 1008,0 hPa 0,0 l/m 0 min 0 min 129 W/m 22,5 km/h (4 Bft) 97,87 %
24.10.2022 12:34 17,5 C 17,2 C 13,3 C 77 % 1008,0 hPa 0,0 l/m 0 min 0 min 139 W/m 48,3 km/h (6 Bft) 93,62 %
24.10.2022 12:36 17,5 C 17,2 C 13,3 C 77 % 1007,9 hPa 0,0 l/m 0 min 0 min 127 W/m 38,6 km/h (5 Bft) 95,65 %
24.10.2022 12:38 17,6 C 17,2 C 13,3 C 76 % 1008,0 hPa 0,0 l/m 0 min 0 min 106 W/m 32,2 km/h (5 Bft) 95,74 %
24.10.2022 12:40 17,6 C 17,2 C 13,3 C 77 % 1008,0 hPa 0,0 l/m 0 min 0 min 113 W/m 41,8 km/h (6 Bft) 95,74 %
24.10.2022 12:42 17,6 C 17,2 C 13,3 C 77 % 1008,1 hPa 0,0 l/m 0 min 0 min 157 W/m 25,7 km/h (4 Bft) 95,74 %
24.10.2022 12:44 17,6 C 17,2 C 13,3 C 78 % 1008,1 hPa 0,0 l/m 0 min 0 min 183 W/m 19,3 km/h (3 Bft) 97,87 %
24.10.2022 12:46 17,6 C 17,2 C 13,3 C 77 % 1008,1 hPa 0,0 l/m 0 min 0 min 125 W/m 22,5 km/h (4 Bft) 97,87 %
24.10.2022 12:48 17,7 C 17,2 C 13,3 C 77 % 1008,2 hPa 0,0 l/m 0 min 0 min 125 W/m 22,5 km/h (4 Bft) 97,83 %
24.10.2022 12:50 17,7 C 17,2 C 13,3 C 77 % 1008,2 hPa 0,0 l/m 0 min 0 min 133 W/m 29,0 km/h (5 Bft) 95,74 %
24.10.2022 12:52 17,7 C 17,2 C 13,3 C 77 % 1008,2 hPa 0,0 l/m 0 min 0 min 165 W/m 22,5 km/h (4 Bft) 97,87 %
24.10.2022 12:54 17,7 C 17,2 C 13,3 C 77 % 1008,2 hPa 0,0 l/m 0 min 0 min 174 W/m 19,3 km/h (3 Bft) 97,87 %
24.10.2022 12:56 17,7 C 17,2 C 13,3 C 76 % 1008,2 hPa 0,0 l/m 0 min 0 min 125 W/m 41,8 km/h (6 Bft) 97,87 %
24.10.2022 12:58 17,7 C 17,2 C 13,3 C 76 % 1008,3 hPa 0,0 l/m 0 min 0 min 150 W/m 29,0 km/h (5 Bft) 95,74 %
24.10.2022 13:00 17,8 C 17,2 C 13,3 C 77 % 1008,4 hPa 0,0 l/m 0 min 0 min 180 W/m 35,4 km/h (5 Bft) 97,83 %
24.10.2022 13:02 17,7 C 17,2 C 13,3 C 76 % 1008,4 hPa 0,0 l/m 0 min 0 min 125 W/m 48,3 km/h (6 Bft) 97,87 %
24.10.2022 13:04 17,7 C 17,2 C 13,3 C 76 % 1008,3 hPa 0,0 l/m 0 min 0 min 113 W/m 25,7 km/h (4 Bft) 97,87 %
24.10.2022 13:06 17,7 C 17,2 C 13,3 C 76 % 1008,3 hPa 0,0 l/m 0 min 0 min 162 W/m 22,5 km/h (4 Bft) 97,87 %
24.10.2022 13:08 17,7 C 17,2 C 13,3 C 76 % 1008,3 hPa 0,0 l/m 0 min 0 min 195 W/m 22,5 km/h (4 Bft) 97,87 %
24.10.2022 13:10 17,8 C 17,8 C 13,3 C 76 % 1008,3 hPa 0,0 l/m 0 min 0 min 170 W/m 25,7 km/h (4 Bft) 97,87 %
24.10.2022 13:12 17,8 C 17,2 C 13,3 C 76 % 1008,4 hPa 0,0 l/m 0 min 0 min 128 W/m 35,4 km/h (5 Bft) 95,65 %
24.10.2022 13:14 17,8 C 17,2 C 13,3 C 76 % 1008,2 hPa 0,0 l/m 0 min 0 min 122 W/m 29,0 km/h (5 Bft) 97,87 %
24.10.2022 13:16 17,8 C 17,2 C 13,3 C 76 % 1008,4 hPa 0,0 l/m 0 min 0 min 145 W/m 41,8 km/h (6 Bft) 95,74 %
24.10.2022 13:18 17,8 C 17,2 C 13,3 C 76 % 1008,3 hPa 0,0 l/m 0 min 0 min 133 W/m 35,4 km/h (5 Bft) 97,87 %
24.10.2022 13:20 17,8 C 17,2 C 13,3 C 77 % 1008,3 hPa 0,0 l/m 0 min 0 min 102 W/m 25,7 km/h (4 Bft) 97,87 %
24.10.2022 13:22 17,8 C 17,2 C 13,3 C 76 % 1008,4 hPa 0,0 l/m 0 min 0 min 85 W/m 22,5 km/h (4 Bft) 97,83 %
24.10.2022 13:24 17,7 C 17,2 C 13,3 C 76 % 1008,4 hPa 0,0 l/m 0 min 0 min 101 W/m 32,2 km/h (5 Bft) 100,00 %
24.10.2022 13:26 17,7 C 17,2 C 13,3 C 76 % 1008,4 hPa 0,0 l/m 0 min 0 min 134 W/m 25,7 km/h (4 Bft) 100,00 %
24.10.2022 13:28 17,7 C 17,2 C 13,3 C 76 % 1008,4 hPa 0,0 l/m 0 min 0 min 124 W/m 25,7 km/h (4 Bft) 97,87 %
24.10.2022 13:30 17,7 C 17,2 C 13,3 C 77 % 1008,4 hPa 0,0 l/m 0 min 0 min 112 W/m 22,5 km/h (4 Bft) 100,00 %
24.10.2022 13:32 17,7 C 17,2 C 13,3 C 77 % 1008,5 hPa 0,0 l/m 0 min 0 min 104 W/m 25,7 km/h (4 Bft) 97,87 %
24.10.2022 13:34 17,7 C 17,2 C 13,3 C 76 % 1008,5 hPa 0,0 l/m 0 min 0 min 109 W/m 22,5 km/h (4 Bft) 93,48 %
24.10.2022 13:36 17,7 C 17,2 C 13,3 C 76 % 1008,5 hPa 0,0 l/m 0 min 0 min 89 W/m 35,4 km/h (5 Bft) 97,87 %
24.10.2022 13:38 17,7 C 17,2 C 13,3 C 76 % 1008,5 hPa 0,0 l/m 0 min 0 min 102 W/m 32,2 km/h (5 Bft) 97,87 %
24.10.2022 13:40 17,7 C 17,2 C 13,3 C 76 % 1008,5 hPa 0,0 l/m 0 min 0 min 118 W/m 35,4 km/h (5 Bft) 97,87 %
24.10.2022 13:42 17,7 C 17,2 C 13,3 C 76 % 1008,5 hPa 0,0 l/m 0 min 0 min 92 W/m 35,4 km/h (5 Bft) 97,87 %
24.10.2022 13:44 17,7 C 16,7 C 13,3 C 76 % 1008,5 hPa 0,0 l/m 0 min 0 min 62 W/m 25,7 km/h (4 Bft) 97,87 %
24.10.2022 13:46 17,7 C 16,7 C 13,3 C 76 % 1008,6 hPa 0,0 l/m 0 min 0 min 78 W/m 22,5 km/h (4 Bft) 97,83 %
24.10.2022 13:48 17,6 C 17,2 C 13,3 C 76 % 1008,5 hPa 0,0 l/m 0 min 0 min 108 W/m 22,5 km/h (4 Bft) 97,87 %
24.10.2022 13:50 17,6 C 17,2 C 13,3 C 76 % 1008,6 hPa 0,0 l/m 0 min 0 min 105 W/m 19,3 km/h (3 Bft) 97,87 %
24.10.2022 13:52 17,6 C 17,2 C 13,3 C 76 % 1008,6 hPa 0,0 l/m 0 min 0 min 102 W/m 19,3 km/h (3 Bft) 97,87 %
24.10.2022 13:54 17,6 C 17,2 C 13,3 C 76 % 1008,6 hPa 0,0 l/m 0 min 0 min 87 W/m 22,5 km/h (4 Bft) 97,87 %
24.10.2022 13:56 17,6 C 16,7 C 13,3 C 76 % 1008,6 hPa 0,0 l/m 0 min 0 min 70 W/m 16,1 km/h (3 Bft) 95,74 %
24.10.2022 13:58 17,6 C 16,7 C 12,8 C 76 % 1008,6 hPa 0,0 l/m 0 min 0 min 76 W/m 22,5 km/h (4 Bft) 97,83 %
24.10.2022 14:00 17,6 C 17,2 C 13,3 C 76 % 1008,6 hPa 0,0 l/m 0 min 0 min 109 W/m 25,7 km/h (4 Bft) 97,87 %
24.10.2022 14:02 17,6 C 17,2 C 13,3 C 76 % 1008,6 hPa 0,0 l/m 0 min 0 min 135 W/m 38,6 km/h (5 Bft) 95,74 %
24.10.2022 14:04 17,6 C 17,2 C 13,3 C 76 % 1008,6 hPa 0,0 l/m 0 min 0 min 105 W/m 25,7 km/h (4 Bft) 95,74 %
24.10.2022 14:06 17,7 C 17,2 C 13,3 C 76 % 1008,6 hPa 0,0 l/m 0 min 0 min 79 W/m 38,6 km/h (5 Bft) 95,74 %
24.10.2022 14:08 17,7 C 17,2 C 13,3 C 76 % 1008,6 hPa 0,0 l/m 0 min 0 min 67 W/m 25,7 km/h (4 Bft) 97,87 %
24.10.2022 14:10 17,7 C 16,7 C 13,3 C 77 % 1008,7 hPa 0,0 l/m 0 min 0 min 61 W/m 25,7 km/h (4 Bft) 95,65 %
24.10.2022 14:12 17,7 C 17,2 C 13,3 C 77 % 1008,7 hPa 0,0 l/m 0 min 0 min 90 W/m 19,3 km/h (3 Bft) 95,74 %
24.10.2022 14:14 17,6 C 17,2 C 13,3 C 77 % 1008,7 hPa 0,0 l/m 0 min 0 min 94 W/m 22,5 km/h (4 Bft) 95,74 %
24.10.2022 14:16 17,7 C 16,7 C 13,3 C 77 % 1008,6 hPa 0,0 l/m 0 min 0 min 80 W/m 22,5 km/h (4 Bft) 95,74 %
24.10.2022 14:18 17,7 C 16,7 C 12,8 C 77 % 1008,7 hPa 0,0 l/m 0 min 0 min 50 W/m 16,1 km/h (3 Bft) 93,62 %
24.10.2022 14:20 17,6 C 16,7 C 12,8 C 77 % 1008,7 hPa 0,0 l/m 0 min 0 min 42 W/m 19,3 km/h (3 Bft) 95,74 %
24.10.2022 14:22 17,6 C 16,7 C 12,2 C 78 % 1008,6 hPa 0,0 l/m 0 min 2 min 46 W/m 12,9 km/h (3 Bft) 95,65 %
24.10.2022 14:24 17,6 C 16,7 C 12,2 C 78 % 1008,6 hPa 0,0 l/m 0 min 0 min 56 W/m 3,2 km/h (1 Bft) 95,74 %
24.10.2022 14:26 17,6 C 16,7 C 12,2 C 79 % 1008,7 hPa 0,0 l/m 0 min 0 min 120 W/m 6,4 km/h (2 Bft) 95,74 %
24.10.2022 14:28 17,6 C 16,7 C 12,2 C 79 % 1008,6 hPa 0,0 l/m 0 min 0 min 114 W/m 16,1 km/h (3 Bft) 95,74 %
24.10.2022 14:30 17,5 C 16,7 C 12,8 C 78 % 1008,6 hPa 0,0 l/m 0 min 0 min 71 W/m 19,3 km/h (3 Bft) 95,74 %
24.10.2022 14:32 17,5 C 16,7 C 12,8 C 78 % 1008,6 hPa 0,0 l/m 0 min 0 min 54 W/m 22,5 km/h (4 Bft) 95,74 %
24.10.2022 14:34 17,5 C 16,7 C 12,8 C 78 % 1008,5 hPa 0,0 l/m 0 min 0 min 56 W/m 19,3 km/h (3 Bft) 95,65 %
24.10.2022 14:36 17,5 C 16,7 C 12,8 C 78 % 1008,6 hPa 0,0 l/m 0 min 0 min 64 W/m 19,3 km/h (3 Bft) 97,87 %
24.10.2022 14:38 17,5 C 16,7 C 12,8 C 78 % 1008,6 hPa 0,0 l/m 0 min 0 min 84 W/m 29,0 km/h (5 Bft) 97,87 %
24.10.2022 14:40 17,5 C 17,2 C 12,8 C 78 % 1008,6 hPa 0,0 l/m 0 min 0 min 105 W/m 22,5 km/h (4 Bft) 97,87 %
24.10.2022 14:42 17,6 C 17,2 C 12,8 C 78 % 1008,6 hPa 0,0 l/m 0 min 0 min 181 W/m 12,9 km/h (3 Bft) 97,87 %
24.10.2022 14:44 17,6 C 17,8 C 13,3 C 78 % 1008,6 hPa 0,0 l/m 2 min 0 min 216 W/m 25,7 km/h (4 Bft) 97,87 %
24.10.2022 14:46 17,7 C 17,8 C 13,3 C 78 % 1008,7 hPa 0,0 l/m 2 min 0 min 247 W/m 32,2 km/h (5 Bft) 97,83 %
24.10.2022 14:48 17,8 C 18,3 C 13,3 C 77 % 1008,7 hPa 0,0 l/m 2 min 0 min 286 W/m 22,5 km/h (4 Bft) 97,87 %
24.10.2022 14:50 17,9 C 17,8 C 13,3 C 77 % 1008,7 hPa 0,0 l/m 0 min 0 min 136 W/m 35,4 km/h (5 Bft) 97,87 %
24.10.2022 14:52 18,0 C 17,8 C 13,9 C 76 % 1008,7 hPa 0,0 l/m 0 min 0 min 121 W/m 29,0 km/h (5 Bft) 97,87 %
24.10.2022 14:54 18,0 C 17,8 C 13,3 C 76 % 1008,8 hPa 0,0 l/m 0 min 0 min 105 W/m 32,2 km/h (5 Bft) 45,95 %
24.10.2022 14:56 18,1 C 17,8 C 13,3 C 76 % 1008,7 hPa 0,0 l/m 0 min 0 min 123 W/m 25,7 km/h (4 Bft) 100,00 %
24.10.2022 14:58 18,1 C 17,8 C 13,3 C 76 % 1008,6 hPa 0,0 l/m 0 min 0 min 136 W/m 19,3 km/h (3 Bft) 100,00 %
24.10.2022 15:00 18,1 C 17,8 C 13,9 C 76 % 1008,6 hPa 0,0 l/m 0 min 0 min 153 W/m 22,5 km/h (4 Bft) 100,00 %
24.10.2022 15:02 18,1 C 17,8 C 13,9 C 76 % 1008,5 hPa 0,0 l/m 0 min 0 min 136 W/m 35,4 km/h (5 Bft) 97,87 %
24.10.2022 15:04 18,1 C 17,8 C 13,9 C 76 % 1008,6 hPa 0,0 l/m 0 min 0 min 136 W/m 35,4 km/h (5 Bft) 100,00 %
24.10.2022 15:06 18,1 C 17,8 C 13,9 C 76 % 1008,4 hPa 0,0 l/m 0 min 0 min 163 W/m 35,4 km/h (5 Bft) 100,00 %
24.10.2022 15:08 18,2 C 18,3 C 13,9 C 76 % 1008,5 hPa 0,0 l/m 2 min 0 min 313 W/m 25,7 km/h (4 Bft) 100,00 %
24.10.2022 15:10 18,3 C 18,3 C 13,9 C 76 % 1008,3 hPa 0,0 l/m 2 min 0 min 359 W/m 22,5 km/h (4 Bft) 97,87 %
24.10.2022 15:12 18,4 C 18,9 C 13,9 C 76 % 1008,3 hPa 0,0 l/m 2 min 0 min 413 W/m 38,6 km/h (5 Bft) 100,00 %
24.10.2022 15:14 18,5 C 18,9 C 13,9 C 75 % 1008,4 hPa 0,0 l/m 2 min 0 min 449 W/m 29,0 km/h (5 Bft) 97,87 %
24.10.2022 15:16 18,6 C 18,9 C 13,9 C 75 % 1008,3 hPa 0,0 l/m 2 min 0 min 492 W/m 22,5 km/h (4 Bft) 97,87 %
24.10.2022 15:18 18,7 C 19,4 C 13,9 C 74 % 1008,3 hPa 0,0 l/m 2 min 0 min 518 W/m 22,5 km/h (4 Bft) 95,74 %
24.10.2022 15:20 18,7 C 19,4 C 13,9 C 75 % 1008,3 hPa 0,0 l/m 2 min 0 min 510 W/m 16,1 km/h (3 Bft) 97,83 %
24.10.2022 15:22 18,8 C 19,4 C 14,4 C 75 % 1008,3 hPa 0,0 l/m 2 min 0 min 228 W/m 16,1 km/h (3 Bft) 97,87 %
24.10.2022 15:24 18,8 C 19,4 C 14,4 C 74 % 1008,3 hPa 0,0 l/m 2 min 0 min 470 W/m 25,7 km/h (4 Bft) 97,87 %
24.10.2022 15:26 18,9 C 19,4 C 14,4 C 73 % 1008,4 hPa 0,0 l/m 2 min 0 min 490 W/m 45,1 km/h (6 Bft) 97,87 %
24.10.2022 15:28 19,0 C 18,9 C 14,4 C 73 % 1008,4 hPa 0,0 l/m 2 min 0 min 484 W/m 35,4 km/h (5 Bft) 97,87 %
24.10.2022 15:30 19,1 C 18,9 C 14,4 C 73 % 1008,4 hPa 0,0 l/m 2 min 0 min 449 W/m 45,1 km/h (6 Bft) 97,87 %
24.10.2022 15:32 19,1 C 18,9 C 14,4 C 73 % 1008,4 hPa 0,0 l/m 2 min 0 min 425 W/m 22,5 km/h (4 Bft) 97,83 %
24.10.2022 15:34 19,1 C 18,9 C 14,4 C 73 % 1008,4 hPa 0,0 l/m 2 min 0 min 419 W/m 22,5 km/h (4 Bft) 95,74 %
24.10.2022 15:36 19,0 C 18,9 C 14,4 C 73 % 1008,3 hPa 0,0 l/m 2 min 0 min 268 W/m 16,1 km/h (3 Bft) 95,74 %
24.10.2022 15:38 18,9 C 18,9 C 13,9 C 73 % 1008,4 hPa 0,0 l/m 2 min 0 min 197 W/m 22,5 km/h (4 Bft) 97,87 %
24.10.2022 15:40 18,9 C 18,3 C 13,9 C 73 % 1008,4 hPa 0,0 l/m 2 min 0 min 170 W/m 25,7 km/h (4 Bft) 97,87 %
24.10.2022 15:42 18,8 C 18,3 C 13,9 C 73 % 1008,5 hPa 0,0 l/m 0 min 0 min 141 W/m 29,0 km/h (5 Bft) 97,87 %
24.10.2022 15:44 18,8 C 18,3 C 13,9 C 74 % 1008,4 hPa 0,0 l/m 2 min 0 min 170 W/m 16,1 km/h (3 Bft) 97,83 %
24.10.2022 15:46 18,7 C 18,3 C 13,9 C 74 % 1008,3 hPa 0,0 l/m 2 min 0 min 182 W/m 45,1 km/h (6 Bft) 97,87 %
24.10.2022 15:48 18,7 C 18,3 C 13,9 C 73 % 1008,4 hPa 0,0 l/m 0 min 0 min 131 W/m 29,0 km/h (5 Bft) 97,87 %
24.10.2022 15:50 18,7 C 18,3 C 13,9 C 74 % 1008,5 hPa 0,0 l/m 0 min 0 min 145 W/m 19,3 km/h (3 Bft) 97,87 %
24.10.2022 15:52 18,7 C 18,3 C 13,9 C 74 % 1008,4 hPa 0,0 l/m 0 min 0 min 89 W/m 19,3 km/h (3 Bft) 97,87 %
24.10.2022 15:54 18,6 C 18,3 C 13,9 C 74 % 1008,4 hPa 0,0 l/m 0 min 0 min 146 W/m 32,2 km/h (5 Bft) 100,00 %
24.10.2022 15:56 18,6 C 18,3 C 13,9 C 74 % 1008,4 hPa 0,0 l/m 2 min 0 min 202 W/m 38,6 km/h (5 Bft) 100,00 %
24.10.2022 15:58 18,6 C 18,3 C 13,9 C 74 % 1008,4 hPa 0,0 l/m 2 min 2 min 172 W/m 35,4 km/h (5 Bft) 100,00 %
24.10.2022 16:00 18,6 C 18,3 C 13,9 C 75 % 1008,4 hPa 0,0 l/m 2 min 0 min 169 W/m 25,7 km/h (4 Bft) 97,87 %
24.10.2022 16:02 18,5 C 18,3 C 13,9 C 76 % 1008,4 hPa 0,0 l/m 2 min 0 min 159 W/m 29,0 km/h (5 Bft) 97,87 %
24.10.2022 16:04 18,4 C 18,3 C 13,9 C 75 % 1008,4 hPa 0,0 l/m 2 min 0 min 170 W/m 29,0 km/h (5 Bft) 100,00 %
24.10.2022 16:06 18,4 C 18,3 C 13,9 C 75 % 1008,4 hPa 0,0 l/m 2 min 0 min 333 W/m 29,0 km/h (5 Bft) 97,87 %
24.10.2022 16:08 18,4 C 18,3 C 13,9 C 75 % 1008,5 hPa 0,0 l/m 2 min 0 min 193 W/m 25,7 km/h (4 Bft) 95,65 %
24.10.2022 16:10 18,5 C 18,9 C 13,9 C 75 % 1008,5 hPa 0,0 l/m 2 min 0 min 207 W/m 32,2 km/h (5 Bft) 97,87 %
24.10.2022 16:12 18,5 C 18,9 C 13,9 C 75 % 1008,6 hPa 0,0 l/m 2 min 0 min 230 W/m 35,4 km/h (5 Bft) 100,00 %
24.10.2022 16:14 18,6 C 18,3 C 13,9 C 75 % 1008,5 hPa 0,0 l/m 2 min 0 min 184 W/m 35,4 km/h (5 Bft) 97,87 %
24.10.2022 16:16 18,6 C 18,3 C 13,9 C 75 % 1008,5 hPa 0,0 l/m 2 min 0 min 170 W/m 38,6 km/h (5 Bft) 97,87 %
24.10.2022 16:18 18,6 C 18,3 C 13,9 C 75 % 1008,5 hPa 0,0 l/m 2 min 0 min 180 W/m 12,9 km/h (3 Bft) 95,65 %
24.10.2022 16:20 18,6 C 18,3 C 13,9 C 76 % 1008,5 hPa 0,0 l/m 2 min 0 min 171 W/m 12,9 km/h (3 Bft) 95,74 %
24.10.2022 16:22 18,6 C 18,3 C 13,9 C 76 % 1008,6 hPa 0,0 l/m 2 min 0 min 162 W/m 16,1 km/h (3 Bft) 93,62 %
24.10.2022 16:24 18,6 C 18,3 C 13,9 C 76 % 1008,6 hPa 0,0 l/m 2 min 0 min 174 W/m 9,7 km/h (2 Bft) 97,87 %
24.10.2022 16:26 18,6 C 18,3 C 13,9 C 75 % 1008,7 hPa 0,0 l/m 2 min 0 min 144 W/m 25,7 km/h (4 Bft) 89,36 %
24.10.2022 16:28 18,6 C 18,3 C 13,9 C 75 % 1008,7 hPa 0,0 l/m 0 min 0 min 110 W/m 16,1 km/h (3 Bft) 97,87 %
24.10.2022 16:30 18,6 C 17,8 C 13,9 C 75 % 1008,7 hPa 0,0 l/m 2 min 0 min 144 W/m 19,3 km/h (3 Bft) 95,65 %
24.10.2022 16:32 18,6 C 17,8 C 13,9 C 75 % 1008,7 hPa 0,0 l/m 0 min 0 min 111 W/m 16,1 km/h (3 Bft) 95,74 %
24.10.2022 16:34 18,6 C 17,8 C 13,9 C 75 % 1008,8 hPa 0,0 l/m 0 min 0 min 113 W/m 38,6 km/h (5 Bft) 95,74 %
24.10.2022 16:36 18,5 C 17,8 C 13,9 C 75 % 1008,8 hPa 0,0 l/m 0 min 0 min 111 W/m 22,5 km/h (4 Bft) 95,74 %
24.10.2022 16:38 18,4 C 17,8 C 13,9 C 75 % 1008,8 hPa 0,0 l/m 2 min 0 min 171 W/m 19,3 km/h (3 Bft) 95,74 %
24.10.2022 16:40 18,4 C 17,8 C 13,9 C 75 % 1008,8 hPa 0,0 l/m 2 min 0 min 140 W/m 12,9 km/h (3 Bft) 95,74 %
24.10.2022 16:42 18,4 C 17,8 C 13,9 C 75 % 1008,7 hPa 0,0 l/m 2 min 0 min 125 W/m 35,4 km/h (5 Bft) 95,65 %
24.10.2022 16:44 18,4 C 17,8 C 13,9 C 75 % 1008,8 hPa 0,0 l/m 2 min 0 min 141 W/m 35,4 km/h (5 Bft) 95,74 %
24.10.2022 16:46 18,4 C 17,8 C 13,9 C 75 % 1008,9 hPa 0,0 l/m 2 min 0 min 112 W/m 29,0 km/h (5 Bft) 95,74 %
24.10.2022 16:48 18,4 C 17,8 C 13,9 C 75 % 1008,9 hPa 0,0 l/m 0 min 0 min 78 W/m 25,7 km/h (4 Bft) 95,74 %
24.10.2022 16:50 18,4 C 17,8 C 13,9 C 75 % 1008,9 hPa 0,0 l/m 0 min 0 min 55 W/m 16,1 km/h (3 Bft) 95,74 %
24.10.2022 16:52 18,3 C 17,2 C 13,9 C 75 % 1008,8 hPa 0,0 l/m 0 min 0 min 34 W/m 32,2 km/h (5 Bft) 93,62 %
24.10.2022 16:54 18,3 C 17,2 C 13,3 C 75 % 1008,9 hPa 0,0 l/m 0 min 0 min 21 W/m 32,2 km/h (5 Bft) 93,48 %
24.10.2022 16:56 18,3 C 17,2 C 13,3 C 75 % 1008,8 hPa 0,0 l/m 0 min 0 min 16 W/m 29,0 km/h (5 Bft) 97,87 %
24.10.2022 16:58 18,2 C 17,2 C 13,3 C 75 % 1008,9 hPa 0,0 l/m 0 min 0 min 13 W/m 22,5 km/h (4 Bft) 97,87 %
24.10.2022 17:00 18,2 C 17,2 C 13,3 C 75 % 1008,9 hPa 0,0 l/m 0 min 0 min 12 W/m 12,9 km/h (3 Bft) 95,74 %
24.10.2022 17:02 18,1 C 17,2 C 13,3 C 75 % 1009,0 hPa 0,0 l/m 0 min 0 min 16 W/m 25,7 km/h (4 Bft) 95,74 %
24.10.2022 17:04 18,1 C 17,2 C 13,3 C 76 % 1008,9 hPa 0,0 l/m 0 min 0 min 24 W/m 16,1 km/h (3 Bft) 97,87 %
24.10.2022 17:06 18,1 C 17,2 C 13,3 C 76 % 1009,0 hPa 0,0 l/m 0 min 0 min 21 W/m 9,7 km/h (2 Bft) 95,65 %
24.10.2022 17:08 18,0 C 16,7 C 13,3 C 77 % 1009,1 hPa 0,0 l/m 0 min 0 min 16 W/m 6,4 km/h (2 Bft) 97,87 %
24.10.2022 17:10 17,9 C 16,7 C 12,8 C 77 % 1009,1 hPa 0,0 l/m 0 min 0 min 17 W/m 6,4 km/h (2 Bft) 97,87 %
24.10.2022 17:12 17,9 C 16,7 C 12,8 C 79 % 1009,1 hPa 0,0 l/m 0 min 0 min 16 W/m 6,4 km/h (2 Bft) 95,74 %
24.10.2022 17:14 17,8 C 16,7 C 12,8 C 79 % 1009,1 hPa 0,0 l/m 0 min 2 min 14 W/m 12,9 km/h (3 Bft) 95,74 %
24.10.2022 17:16 17,7 C 16,1 C 11,1 C 80 % 1009,2 hPa 0,2 l/m 0 min 2 min 12 W/m 16,1 km/h (3 Bft) 97,87 %
24.10.2022 17:18 17,5 C 15,6 C 10,6 C 82 % 1009,1 hPa 0,0 l/m 0 min 2 min 15 W/m 19,3 km/h (3 Bft) 97,83 %
24.10.2022 17:20 17,3 C 15,6 C 10,6 C 83 % 1009,1 hPa 0,0 l/m 0 min 2 min 19 W/m 12,9 km/h (3 Bft) 100,00 %
24.10.2022 17:22 17,2 C 15,6 C 10,6 C 83 % 1009,1 hPa 0,0 l/m 0 min 2 min 25 W/m 6,4 km/h (2 Bft) 100,00 %
24.10.2022 17:24 17,1 C 15,0 C 10,6 C 85 % 1009,1 hPa 0,2 l/m 0 min 2 min 28 W/m 12,9 km/h (3 Bft) 91,49 %
24.10.2022 17:26 16,8 C 15,0 C 10,0 C 85 % 1009,2 hPa 0,2 l/m 0 min 2 min 32 W/m 6,4 km/h (2 Bft) 100,00 %
24.10.2022 17:28 16,7 C 15,0 C 10,0 C 86 % 1009,3 hPa 0,0 l/m 0 min 2 min 32 W/m 12,9 km/h (3 Bft) 97,83 %
24.10.2022 17:30 16,6 C 15,0 C 10,0 C 86 % 1009,2 hPa 0,0 l/m 0 min 2 min 29 W/m 9,7 km/h (2 Bft) 100,00 %
24.10.2022 17:32 16,5 C 15,0 C 10,0 C 87 % 1009,3 hPa 0,0 l/m 0 min 2 min 29 W/m 6,4 km/h (2 Bft) 100,00 %
24.10.2022 17:34 16,4 C 15,0 C 10,0 C 87 % 1009,3 hPa 0,0 l/m 0 min 0 min 34 W/m 6,4 km/h (2 Bft) 100,00 %
24.10.2022 17:36 16,3 C 15,0 C 10,0 C 88 % 1009,3 hPa 0,0 l/m 0 min 0 min 51 W/m 12,9 km/h (3 Bft) 97,87 %
24.10.2022 17:38 16,3 C 15,0 C 10,6 C 88 % 1009,3 hPa 0,0 l/m 2 min 2 min 84 W/m 12,9 km/h (3 Bft) 100,00 %
24.10.2022 17:40 16,3 C 15,0 C 10,6 C 89 % 1009,3 hPa 0,0 l/m 2 min 0 min 109 W/m 6,4 km/h (2 Bft) 100,00 %
24.10.2022 17:42 16,2 C 15,6 C 10,6 C 89 % 1009,3 hPa 0,0 l/m 2 min 0 min 92 W/m 6,4 km/h (2 Bft) 97,87 %
24.10.2022 17:44 16,2 C 15,0 C 10,6 C 89 % 1009,3 hPa 0,0 l/m 2 min 0 min 57 W/m 9,7 km/h (2 Bft) 100,00 %
24.10.2022 17:46 16,1 C 15,0 C 10,6 C 89 % 1009,3 hPa 0,0 l/m 0 min 0 min 38 W/m 12,9 km/h (3 Bft) 95,74 %
24.10.2022 17:48 16,1 C 15,0 C 10,6 C 89 % 1009,3 hPa 0,0 l/m 0 min 0 min 24 W/m 6,4 km/h (2 Bft) 95,74 %
24.10.2022 17:50 16,0 C 15,0 C 10,6 C 90 % 1009,3 hPa 0,0 l/m 0 min 0 min 17 W/m 6,4 km/h (2 Bft) 95,74 %
24.10.2022 17:52 15,9 C 15,0 C 10,0 C 90 % 1009,4 hPa 0,0 l/m 0 min 0 min 13 W/m 16,1 km/h (3 Bft) 97,83 %
24.10.2022 17:54 15,9 C 14,4 C 10,0 C 90 % 1009,4 hPa 0,0 l/m 0 min 0 min 12 W/m 19,3 km/h (3 Bft) 93,62 %
24.10.2022 17:56 15,8 C 14,4 C 10,0 C 90 % 1009,5 hPa 0,0 l/m 0 min 0 min 11 W/m 19,3 km/h (3 Bft) 97,87 %
24.10.2022 17:58 15,7 C 14,4 C 10,0 C 90 % 1009,4 hPa 0,0 l/m 0 min 0 min 12 W/m 19,3 km/h (3 Bft) 97,87 %
24.10.2022 18:00 15,7 C 14,4 C 10,0 C 90 % 1009,4 hPa 0,0 l/m 0 min 0 min 14 W/m 12,9 km/h (3 Bft) 97,87 %
24.10.2022 18:02 15,7 C 14,4 C 10,0 C 91 % 1009,4 hPa 0,0 l/m 0 min 0 min 12 W/m 12,9 km/h (3 Bft) 97,87 %
24.10.2022 18:04 15,6 C 14,4 C 10,0 C 91 % 1009,4 hPa 0,0 l/m 0 min 0 min 12 W/m 16,1 km/h (3 Bft) 97,83 %
24.10.2022 18:08 15,6 C 14,4 C 10,0 C 90 % 1009,5 hPa 0,0 l/m 0 min 0 min 11 W/m 19,3 km/h (3 Bft) 95,24 %
24.10.2022 18:10 15,5 C 14,4 C 10,0 C 91 % 1009,5 hPa 0,0 l/m 0 min 0 min 10 W/m 9,7 km/h (2 Bft) 95,74 %
24.10.2022 18:12 15,5 C 14,4 C 10,0 C 91 % 1009,5 hPa 0,0 l/m 0 min 0 min 9 W/m 12,9 km/h (3 Bft) 95,74 %
24.10.2022 18:14 15,4 C 14,4 C 10,0 C 91 % 1009,5 hPa 0,0 l/m 0 min 0 min 8 W/m 12,9 km/h (3 Bft) 97,87 %
24.10.2022 18:16 15,4 C 14,4 C 10,0 C 91 % 1009,6 hPa 0,0 l/m 0 min 0 min 7 W/m 9,7 km/h (2 Bft) 93,62 %
24.10.2022 18:18 15,4 C 14,4 C 10,0 C 91 % 1009,5 hPa 0,0 l/m 0 min 0 min 5 W/m 6,4 km/h (2 Bft) 93,62 %
24.10.2022 18:20 15,3 C 14,4 C 10,0 C 91 % 1009,6 hPa 0,0 l/m 0 min 0 min 5 W/m 6,4 km/h (2 Bft) 95,65 %
24.10.2022 18:22 15,3 C 13,9 C 10,0 C 91 % 1009,5 hPa 0,0 l/m 0 min 0 min 1 W/m 6,4 km/h (2 Bft) 95,74 %
24.10.2022 18:24 15,3 C 13,9 C 10,0 C 91 % 1009,6 hPa 0,0 l/m 0 min 0 min 0 W/m 16,1 km/h (3 Bft) 93,62 %
24.10.2022 18:26 15,3 C 13,9 C 10,0 C 91 % 1009,6 hPa 0,0 l/m 0 min 0 min 0 W/m 3,2 km/h (1 Bft) 95,74 %
24.10.2022 18:28 15,2 C 13,9 C 10,0 C 91 % 1009,6 hPa 0,0 l/m 0 min 0 min 0 W/m 9,7 km/h (2 Bft) 95,74 %
24.10.2022 18:30 15,2 C 13,9 C 10,0 C 91 % 1009,7 hPa 0,0 l/m 0 min 0 min 0 W/m 9,7 km/h (2 Bft) 93,48 %
24.10.2022 18:32 15,2 C 13,9 C 10,0 C 91 % 1009,7 hPa 0,0 l/m 0 min 0 min 0 W/m 12,9 km/h (3 Bft) 93,62 %
24.10.2022 18:34 15,2 C 13,9 C 10,0 C 91 % 1009,7 hPa 0,0 l/m 0 min 0 min 0 W/m 16,1 km/h (3 Bft) 95,74 %
24.10.2022 18:36 15,2 C 13,9 C 10,0 C 92 % 1009,7 hPa 0,0 l/m 0 min 0 min 0 W/m 9,7 km/h (2 Bft) 94,92 %
24.10.2022 18:38 15,1 C 13,9 C 10,0 C 92 % 1009,7 hPa 0,0 l/m 0 min 0 min 0 W/m 19,3 km/h (3 Bft) 97,83 %
24.10.2022 18:40 15,1 C 13,9 C 10,0 C 92 % 1009,7 hPa 0,0 l/m 0 min 0 min 0 W/m 16,1 km/h (3 Bft) 100,00 %
24.10.2022 18:42 15,1 C 14,4 C 10,0 C 92 % 1009,6 hPa 0,0 l/m 0 min 0 min 0 W/m 6,4 km/h (2 Bft) 93,48 %
24.10.2022 18:44 15,1 C 13,9 C 10,0 C 92 % 1009,7 hPa 0,0 l/m 0 min 0 min 0 W/m 6,4 km/h (2 Bft) 95,74 %
24.10.2022 18:46 15,1 C 13,9 C 10,0 C 92 % 1009,7 hPa 0,0 l/m 0 min 0 min 0 W/m 9,7 km/h (2 Bft) 97,87 %
24.10.2022 18:48 15,1 C 14,4 C 10,0 C 92 % 1009,8 hPa 0,0 l/m 0 min 0 min 0 W/m 6,4 km/h (2 Bft) 97,87 %
24.10.2022 18:50 15,1 C 14,4 C 10,0 C 92 % 1009,8 hPa 0,0 l/m 0 min 0 min 0 W/m 6,4 km/h (2 Bft) 97,87 %
24.10.2022 18:52 15,1 C 13,9 C 10,0 C 92 % 1010,0 hPa 0,4 l/m 0 min 2 min 0 W/m 6,4 km/h (2 Bft) 100,00 %
24.10.2022 18:54 15,1 C 13,9 C 10,0 C 92 % 1010,1 hPa 0,2 l/m 0 min 2 min 0 W/m 9,7 km/h (2 Bft) 95,65 %
24.10.2022 18:56 15,0 C 13,9 C 10,0 C 93 % 1010,1 hPa 0,2 l/m 0 min 2 min 0 W/m 12,9 km/h (3 Bft) 97,87 %
24.10.2022 18:58 14,9 C 13,3 C 9,4 C 92 % 1010,1 hPa 0,2 l/m 0 min 2 min 0 W/m 19,3 km/h (3 Bft) 100,00 %
24.10.2022 19:00 14,9 C 13,3 C 9,4 C 92 % 1010,1 hPa 0,0 l/m 0 min 2 min 0 W/m 12,9 km/h (3 Bft) 95,74 %
24.10.2022 19:02 14,7 C 12,8 C 9,4 C 92 % 1010,0 hPa 0,0 l/m 0 min 2 min 0 W/m 16,1 km/h (3 Bft) 100,00 %
24.10.2022 19:04 14,5 C 12,8 C 8,9 C 92 % 1009,9 hPa 0,0 l/m 0 min 2 min 0 W/m 19,3 km/h (3 Bft) 97,87 %
24.10.2022 19:06 14,3 C 12,8 C 8,9 C 91 % 1009,9 hPa 0,2 l/m 0 min 2 min 0 W/m 9,7 km/h (2 Bft) 98,28 %
24.10.2022 19:08 14,3 C 12,8 C 8,9 C 91 % 1009,9 hPa 0,0 l/m 0 min 2 min 0 W/m 12,9 km/h (3 Bft) 97,87 %
24.10.2022 19:10 14,2 C 12,8 C 8,9 C 91 % 1009,9 hPa 0,0 l/m 0 min 0 min 0 W/m 12,9 km/h (3 Bft) 100,00 %
24.10.2022 19:12 14,1 C 12,8 C 8,9 C 91 % 1009,9 hPa 0,0 l/m 0 min 2 min 0 W/m 3,2 km/h (1 Bft) 95,74 %
24.10.2022 19:14 14,1 C 12,8 C 8,9 C 92 % 1010,0 hPa 0,0 l/m 0 min 2 min 0 W/m 6,4 km/h (2 Bft) 95,74 %
24.10.2022 19:16 14,1 C 12,8 C 8,9 C 91 % 1010,0 hPa 0,0 l/m 0 min 2 min 0 W/m 6,4 km/h (2 Bft) 97,87 %
24.10.2022 19:18 14,0 C 12,8 C 8,9 C 92 % 1010,1 hPa 0,0 l/m 0 min 2 min 0 W/m 6,4 km/h (2 Bft) 97,83 %
24.10.2022 19:20 14,0 C 12,8 C 8,9 C 92 % 1010,2 hPa 0,2 l/m 0 min 2 min 0 W/m 6,4 km/h (2 Bft) 97,87 %
24.10.2022 19:22 13,9 C 12,8 C 8,9 C 92 % 1010,2 hPa 0,0 l/m 0 min 2 min 0 W/m 6,4 km/h (2 Bft) 97,87 %
24.10.2022 19:24 13,9 C 12,8 C 8,9 C 92 % 1010,2 hPa 0,0 l/m 0 min 2 min 0 W/m 12,9 km/h (3 Bft) 97,87 %
24.10.2022 19:26 13,9 C 12,8 C 8,9 C 93 % 1010,1 hPa 0,0 l/m 0 min 2 min 0 W/m 3,2 km/h (1 Bft) 97,87 %
24.10.2022 19:28 13,9 C 12,8 C 8,9 C 93 % 1010,1 hPa 0,0 l/m 0 min 2 min 0 W/m 29,0 km/h (5 Bft) 97,87 %
24.10.2022 19:30 13,9 C 12,8 C 8,9 C 93 % 1010,1 hPa 0,0 l/m 0 min 2 min 0 W/m 12,9 km/h (3 Bft) 97,83 %
24.10.2022 19:32 14,0 C 12,8 C 8,9 C 93 % 1010,1 hPa 0,0 l/m 0 min 0 min 0 W/m 29,0 km/h (5 Bft) 97,87 %
24.10.2022 19:34 14,0 C 12,8 C 9,4 C 94 % 1010,0 hPa 0,0 l/m 0 min 0 min 0 W/m 9,7 km/h (2 Bft) 95,74 %
24.10.2022 19:36 14,0 C 12,8 C 9,4 C 94 % 1009,9 hPa 0,0 l/m 0 min 0 min 0 W/m 6,4 km/h (2 Bft) 96,61 %
24.10.2022 19:38 14,1 C 12,8 C 9,4 C 94 % 1010,0 hPa 0,0 l/m 0 min 0 min 0 W/m 6,4 km/h (2 Bft) 97,14 %
24.10.2022 19:40 14,1 C 12,8 C 9,4 C 94 % 1009,9 hPa 0,0 l/m 0 min 0 min 0 W/m 16,1 km/h (3 Bft) 95,74 %
24.10.2022 19:42 14,1 C 12,8 C 8,9 C 94 % 1010,0 hPa 0,0 l/m 0 min 0 min 0 W/m 9,7 km/h (2 Bft) 95,65 %
24.10.2022 19:44 14,1 C 12,8 C 9,4 C 94 % 1010,1 hPa 0,0 l/m 0 min 0 min 0 W/m 16,1 km/h (3 Bft) 97,87 %
24.10.2022 19:46 14,1 C 12,8 C 9,4 C 94 % 1010,2 hPa 0,0 l/m 0 min 2 min 0 W/m 12,9 km/h (3 Bft) 95,74 %
24.10.2022 19:48 14,0 C 12,8 C 9,4 C 94 % 1010,1 hPa 0,0 l/m 0 min 2 min 0 W/m 12,9 km/h (3 Bft) 97,87 %
24.10.2022 19:50 14,0 C 12,8 C 9,4 C 94 % 1010,2 hPa 0,0 l/m 0 min 2 min 0 W/m 16,1 km/h (3 Bft) 100,00 %
24.10.2022 19:52 14,0 C 12,8 C 8,9 C 94 % 1010,1 hPa 0,0 l/m 0 min 2 min 0 W/m 16,1 km/h (3 Bft) 100,00 %
24.10.2022 19:54 13,9 C 12,8 C 9,4 C 94 % 1010,1 hPa 0,0 l/m 0 min 2 min 0 W/m 16,1 km/h (3 Bft) 97,83 %
24.10.2022 19:56 13,9 C 12,8 C 8,9 C 94 % 1010,2 hPa 0,0 l/m 0 min 0 min 0 W/m 19,3 km/h (3 Bft) 97,87 %
24.10.2022 19:58 13,9 C 12,8 C 8,9 C 94 % 1010,3 hPa 0,0 l/m 0 min 0 min 0 W/m 16,1 km/h (3 Bft) 100,00 %
24.10.2022 20:00 13,9 C 12,8 C 8,9 C 94 % 1010,3 hPa 0,0 l/m 0 min 0 min 0 W/m 9,7 km/h (2 Bft) 100,00 %
24.10.2022 20:02 13,9 C 12,8 C 8,9 C 94 % 1010,3 hPa 0,0 l/m 0 min 0 min 0 W/m 16,1 km/h (3 Bft) 100,00 %
24.10.2022 20:04 13,8 C 12,8 C 8,9 C 94 % 1010,3 hPa 0,0 l/m 0 min 0 min 0 W/m 12,9 km/h (3 Bft) 95,74 %
24.10.2022 20:06 13,8 C 12,8 C 8,9 C 94 % 1010,3 hPa 0,0 l/m 0 min 0 min 0 W/m 12,9 km/h (3 Bft) 94,83 %
24.10.2022 20:08 13,8 C 12,8 C 8,9 C 94 % 1010,3 hPa 0,0 l/m 0 min 0 min 0 W/m 12,9 km/h (3 Bft) 100,00 %
24.10.2022 20:10 13,7 C 12,8 C 8,9 C 94 % 1010,4 hPa 0,0 l/m 0 min 0 min 0 W/m 9,7 km/h (2 Bft) 97,87 %
24.10.2022 20:12 13,7 C 12,8 C 8,9 C 94 % 1010,4 hPa 0,0 l/m 0 min 0 min 0 W/m 12,9 km/h (3 Bft) 93,62 %
24.10.2022 20:14 13,7 C 12,8 C 8,9 C 94 % 1010,3 hPa 0,0 l/m 0 min 0 min 0 W/m 6,4 km/h (2 Bft) 97,87 %
24.10.2022 20:16 13,7 C 12,8 C 8,9 C 94 % 1010,3 hPa 0,0 l/m 0 min 0 min 0 W/m 9,7 km/h (2 Bft) 97,87 %
24.10.2022 20:18 13,7 C 12,2 C 8,9 C 94 % 1010,3 hPa 0,0 l/m 0 min 0 min 0 W/m 6,4 km/h (2 Bft) 95,65 %
24.10.2022 20:20 13,6 C 12,2 C 8,9 C 94 % 1010,3 hPa 0,0 l/m 0 min 0 min 0 W/m 6,4 km/h (2 Bft) 100,00 %
24.10.2022 20:22 13,6 C 12,2 C 8,9 C 94 % 1010,3 hPa 0,0 l/m 0 min 0 min 0 W/m 6,4 km/h (2 Bft) 97,87 %
24.10.2022 20:24 13,6 C 12,2 C 8,9 C 94 % 1010,4 hPa 0,0 l/m 0 min 0 min 0 W/m 3,2 km/h (1 Bft) 97,87 %
24.10.2022 20:26 13,6 C 12,2 C 8,9 C 94 % 1010,5 hPa 0,0 l/m 0 min 0 min 0 W/m 3,2 km/h (1 Bft) 97,87 %
24.10.2022 20:28 13,6 C 12,2 C 8,9 C 95 % 1010,4 hPa 0,0 l/m 0 min 0 min 0 W/m 3,2 km/h (1 Bft) 95,74 %
24.10.2022 20:30 13,6 C 12,2 C 8,9 C 95 % 1010,4 hPa 0,0 l/m 0 min 0 min 0 W/m 3,2 km/h (1 Bft) 95,65 %
24.10.2022 20:32 13,6 C 12,2 C 8,9 C 95 % 1010,4 hPa 0,0 l/m 0 min 0 min 0 W/m 3,2 km/h (1 Bft) 95,74 %
24.10.2022 20:34 13,6 C 12,2 C 8,9 C 95 % 1010,5 hPa 0,0 l/m 0 min 0 min 0 W/m 3,2 km/h (1 Bft) 97,87 %
24.10.2022 20:36 13,5 C 12,2 C 8,9 C 95 % 1010,4 hPa 0,0 l/m 0 min 0 min 0 W/m 3,2 km/h (1 Bft) 100,00 %
24.10.2022 20:38 13,5 C 12,2 C 8,9 C 95 % 1010,4 hPa 0,0 l/m 0 min 0 min 0 W/m 3,2 km/h (1 Bft) 100,00 %
24.10.2022 20:40 13,5 C 12,2 C 8,9 C 95 % 1010,5 hPa 0,0 l/m 0 min 0 min 0 W/m 3,2 km/h (1 Bft) 100,00 %
24.10.2022 20:42 13,5 C 12,2 C 8,9 C 95 % 1010,5 hPa 0,0 l/m 0 min 0 min 0 W/m 6,4 km/h (2 Bft) 100,00 %
24.10.2022 20:44 13,5 C 12,2 C 8,9 C 95 % 1010,5 hPa 0,0 l/m 0 min 0 min 0 W/m 6,4 km/h (2 Bft) 100,00 %
24.10.2022 20:46 13,5 C 12,8 C 8,9 C 95 % 1010,6 hPa 0,0 l/m 0 min 0 min 0 W/m 6,4 km/h (2 Bft) 100,00 %
24.10.2022 20:48 13,5 C 12,8 C 8,9 C 95 % 1010,5 hPa 0,0 l/m 0 min 0 min 0 W/m 6,4 km/h (2 Bft) 97,87 %
24.10.2022 20:50 13,5 C 12,8 C 8,9 C 95 % 1010,6 hPa 0,0 l/m 0 min 0 min 0 W/m 6,4 km/h (2 Bft) 100,00 %
24.10.2022 20:52 13,5 C 12,8 C 8,9 C 95 % 1010,6 hPa 0,0 l/m 0 min 0 min 0 W/m 9,7 km/h (2 Bft) 97,87 %
24.10.2022 20:54 13,5 C 12,8 C 8,9 C 95 % 1010,6 hPa 0,0 l/m 0 min 0 min 0 W/m 9,7 km/h (2 Bft) 95,65 %
24.10.2022 20:56 13,5 C 12,8 C 8,9 C 95 % 1010,6 hPa 0,0 l/m 0 min 0 min 0 W/m 6,4 km/h (2 Bft) 97,87 %
24.10.2022 20:58 13,5 C 12,8 C 8,9 C 95 % 1010,6 hPa 0,0 l/m 0 min 0 min 0 W/m 6,4 km/h (2 Bft) 97,87 %
24.10.2022 21:00 13,5 C 12,8 C 8,9 C 95 % 1010,6 hPa 0,0 l/m 0 min 0 min 0 W/m 6,4 km/h (2 Bft) 97,87 %
24.10.2022 21:02 13,5 C 12,8 C 8,9 C 95 % 1010,5 hPa 0,0 l/m 0 min 0 min 0 W/m 3,2 km/h (1 Bft) 95,74 %
24.10.2022 21:04 13,5 C 12,8 C 8,9 C 95 % 1010,5 hPa 0,0 l/m 0 min 0 min 0 W/m 3,2 km/h (1 Bft) 97,87 %
24.10.2022 21:06 13,6 C 12,8 C 8,9 C 95 % 1010,5 hPa 0,0 l/m 0 min 0 min 0 W/m 6,4 km/h (2 Bft) 96,55 %
24.10.2022 21:08 13,6 C 12,8 C 8,9 C 95 % 1010,5 hPa 0,0 l/m 0 min 0 min 0 W/m 3,2 km/h (1 Bft) 100,00 %
24.10.2022 21:10 13,6 C 12,8 C 8,9 C 95 % 1010,5 hPa 0,0 l/m 0 min 0 min 0 W/m 3,2 km/h (1 Bft) 95,74 %
24.10.2022 21:12 13,6 C 12,8 C 8,9 C 95 % 1010,5 hPa 0,0 l/m 0 min 0 min 0 W/m 6,4 km/h (2 Bft) 97,87 %
24.10.2022 21:14 13,6 C 12,8 C 8,9 C 95 % 1010,5 hPa 0,0 l/m 0 min 0 min 0 W/m 3,2 km/h (1 Bft) 97,87 %
24.10.2022 21:16 13,6 C 12,8 C 8,9 C 95 % 1010,4 hPa 0,0 l/m 0 min 0 min 0 W/m 3,2 km/h (1 Bft) 97,83 %
24.10.2022 21:18 13,6 C 12,8 C 8,9 C 95 % 1010,4 hPa 0,0 l/m 0 min 0 min 0 W/m 3,2 km/h (1 Bft) 97,87 %
24.10.2022 21:20 13,6 C 12,8 C 8,9 C 95 % 1010,4 hPa 0,0 l/m 0 min 0 min 0 W/m 3,2 km/h (1 Bft) 97,87 %
24.10.2022 21:22 13,6 C 12,8 C 8,9 C 95 % 1010,4 hPa 0,0 l/m 0 min 0 min 0 W/m 6,4 km/h (2 Bft) 95,74 %
24.10.2022 21:24 13,7 C 12,8 C 8,9 C 95 % 1010,4 hPa 0,0 l/m 0 min 0 min 0 W/m 12,9 km/h (3 Bft) 97,87 %
24.10.2022 21:26 13,7 C 12,8 C 8,9 C 96 % 1010,4 hPa 0,0 l/m 0 min 0 min 0 W/m 6,4 km/h (2 Bft) 91,49 %
24.10.2022 21:28 13,7 C 12,8 C 9,4 C 96 % 1010,4 hPa 0,0 l/m 0 min 0 min 0 W/m 9,7 km/h (2 Bft) 97,87 %
24.10.2022 21:30 13,7 C 13,3 C 9,4 C 95 % 1010,4 hPa 0,0 l/m 0 min 0 min 0 W/m 9,7 km/h (2 Bft) 95,65 %
24.10.2022 21:32 13,8 C 13,3 C 9,4 C 95 % 1010,4 hPa 0,0 l/m 0 min 0 min 0 W/m 12,9 km/h (3 Bft) 95,74 %
24.10.2022 21:34 13,8 C 13,3 C 9,4 C 95 % 1010,4 hPa 0,0 l/m 0 min 0 min 0 W/m 12,9 km/h (3 Bft) 97,87 %
24.10.2022 21:36 13,8 C 13,3 C 9,4 C 95 % 1010,4 hPa 0,0 l/m 0 min 0 min 0 W/m 6,4 km/h (2 Bft) 98,31 %
24.10.2022 21:38 13,9 C 13,3 C 9,4 C 95 % 1010,3 hPa 0,0 l/m 0 min 0 min 0 W/m 16,1 km/h (3 Bft) 97,14 %
24.10.2022 21:40 13,9 C 13,3 C 9,4 C 95 % 1010,3 hPa 0,0 l/m 0 min 0 min 0 W/m 19,3 km/h (3 Bft) 95,65 %
24.10.2022 21:42 13,9 C 13,3 C 9,4 C 96 % 1010,4 hPa 0,0 l/m 0 min 0 min 0 W/m 19,3 km/h (3 Bft) 91,49 %
24.10.2022 21:44 14,0 C 13,3 C 9,4 C 96 % 1010,4 hPa 0,0 l/m 0 min 0 min 0 W/m 19,3 km/h (3 Bft) 91,49 %
24.10.2022 21:46 14,1 C 13,3 C 9,4 C 96 % 1010,4 hPa 0,0 l/m 0 min 0 min 0 W/m 9,7 km/h (2 Bft) 91,49 %
24.10.2022 21:48 14,1 C 13,9 C 9,4 C 96 % 1010,7 hPa 0,0 l/m 0 min 0 min 0 W/m 19,3 km/h (3 Bft) 97,87 %
24.10.2022 21:50 14,1 C 13,9 C 9,4 C 96 % 1010,9 hPa 0,2 l/m 0 min 2 min 0 W/m 6,4 km/h (2 Bft) 96,30 %
24.10.2022 21:52 14,2 C 13,3 C 9,4 C 96 % 1011,0 hPa 0,4 l/m 0 min 2 min 0 W/m 16,1 km/h (3 Bft) 95,74 %
24.10.2022 21:54 14,3 C 13,3 C 9,4 C 96 % 1011,0 hPa 0,0 l/m 0 min 2 min 0 W/m 16,1 km/h (3 Bft) 94,00 %
24.10.2022 21:56 14,3 C 13,3 C 9,4 C 96 % 1011,0 hPa 0,0 l/m 0 min 2 min 0 W/m 12,9 km/h (3 Bft) 95,74 %
24.10.2022 21:58 14,3 C 13,3 C 9,4 C 96 % 1011,0 hPa 0,0 l/m 0 min 2 min 0 W/m 22,5 km/h (4 Bft) 93,62 %
24.10.2022 22:00 14,3 C 13,3 C 9,4 C 95 % 1011,1 hPa 0,0 l/m 0 min 2 min 0 W/m 16,1 km/h (3 Bft) 95,65 %
24.10.2022 22:02 14,2 C 13,3 C 9,4 C 95 % 1011,0 hPa 0,2 l/m 0 min 2 min 0 W/m 16,1 km/h (3 Bft) 93,62 %
24.10.2022 22:04 14,2 C 13,3 C 9,4 C 95 % 1011,1 hPa 0,0 l/m 0 min 2 min 0 W/m 12,9 km/h (3 Bft) 94,44 %
24.10.2022 22:06 14,1 C 12,8 C 8,9 C 95 % 1011,1 hPa 0,0 l/m 0 min 2 min 0 W/m 9,7 km/h (2 Bft) 95,74 %
24.10.2022 22:08 14,0 C 12,8 C 8,9 C 94 % 1011,0 hPa 0,0 l/m 0 min 2 min 0 W/m 6,4 km/h (2 Bft) 93,62 %
24.10.2022 22:10 13,9 C 12,8 C 8,9 C 94 % 1011,0 hPa 0,0 l/m 0 min 2 min 0 W/m 6,4 km/h (2 Bft) 94,55 %
24.10.2022 22:12 13,8 C 12,8 C 8,9 C 94 % 1011,1 hPa 0,0 l/m 0 min 2 min 0 W/m 6,4 km/h (2 Bft) 91,49 %
24.10.2022 22:14 13,8 C 12,8 C 8,9 C 94 % 1011,0 hPa 0,0 l/m 0 min 2 min 0 W/m 12,9 km/h (3 Bft) 95,92 %
24.10.2022 22:16 13,7 C 12,8 C 8,9 C 94 % 1011,0 hPa 0,2 l/m 0 min 2 min 0 W/m 6,4 km/h (2 Bft) 93,62 %
24.10.2022 22:18 13,7 C 12,8 C 8,9 C 94 % 1011,1 hPa 0,0 l/m 0 min 2 min 0 W/m 12,9 km/h (3 Bft) 97,22 %
24.10.2022 22:20 13,7 C 12,2 C 8,9 C 94 % 1011,1 hPa 0,2 l/m 0 min 2 min 0 W/m 12,9 km/h (3 Bft) 95,74 %
24.10.2022 22:22 13,6 C 12,2 C 8,9 C 94 % 1011,1 hPa 0,0 l/m 0 min 2 min 0 W/m 19,3 km/h (3 Bft) 97,87 %
24.10.2022 22:24 13,6 C 12,2 C 8,9 C 94 % 1011,1 hPa 0,0 l/m 0 min 2 min 0 W/m 16,1 km/h (3 Bft) 97,87 %
24.10.2022 22:26 13,6 C 12,2 C 8,9 C 94 % 1011,1 hPa 0,0 l/m 0 min 2 min 0 W/m 19,3 km/h (3 Bft) 100,00 %
24.10.2022 22:28 13,5 C 12,2 C 8,9 C 94 % 1011,1 hPa 0,0 l/m 0 min 2 min 0 W/m 12,9 km/h (3 Bft) 100,00 %
24.10.2022 22:30 13,4 C 12,2 C 8,9 C 94 % 1011,1 hPa 0,2 l/m 0 min 2 min 0 W/m 12,9 km/h (3 Bft) 100,00 %
24.10.2022 22:32 13,4 C 12,2 C 8,9 C 94 % 1011,1 hPa 0,0 l/m 0 min 2 min 0 W/m 12,9 km/h (3 Bft) 100,00 %
24.10.2022 22:34 13,4 C 12,2 C 8,9 C 94 % 1011,1 hPa 0,0 l/m 0 min 2 min 0 W/m 6,4 km/h (2 Bft) 100,00 %
24.10.2022 22:36 13,4 C 12,2 C 8,9 C 94 % 1011,2 hPa 0,0 l/m 0 min 0 min 0 W/m 6,4 km/h (2 Bft) 100,00 %
24.10.2022 22:38 13,4 C 12,2 C 8,9 C 94 % 1011,2 hPa 0,2 l/m 0 min 2 min 0 W/m 9,7 km/h (2 Bft) 100,00 %
24.10.2022 22:40 13,3 C 12,2 C 8,9 C 94 % 1011,2 hPa 0,0 l/m 0 min 2 min 0 W/m 19,3 km/h (3 Bft) 100,00 %
24.10.2022 22:42 13,3 C 12,2 C 8,9 C 94 % 1011,1 hPa 0,0 l/m 0 min 2 min 0 W/m 16,1 km/h (3 Bft) 100,00 %
24.10.2022 22:44 13,3 C 12,2 C 8,9 C 94 % 1011,2 hPa 0,0 l/m 0 min 2 min 0 W/m 19,3 km/h (3 Bft) 100,00 %
24.10.2022 22:46 13,3 C 12,2 C 8,9 C 94 % 1011,2 hPa 0,0 l/m 0 min 2 min 0 W/m 16,1 km/h (3 Bft) 97,87 %
24.10.2022 22:48 13,2 C 12,2 C 8,9 C 94 % 1011,2 hPa 0,0 l/m 0 min 2 min 0 W/m 19,3 km/h (3 Bft) 100,00 %
24.10.2022 22:50 13,2 C 12,2 C 8,9 C 95 % 1011,2 hPa 0,0 l/m 0 min 0 min 0 W/m 6,4 km/h (2 Bft) 100,00 %
24.10.2022 22:52 13,2 C 12,2 C 8,9 C 95 % 1011,3 hPa 0,0 l/m 0 min 0 min 0 W/m 9,7 km/h (2 Bft) 100,00 %
24.10.2022 22:54 13,2 C 12,2 C 8,9 C 95 % 1011,4 hPa 0,0 l/m 0 min 0 min 0 W/m 12,9 km/h (3 Bft) 100,00 %
24.10.2022 22:56 13,2 C 12,2 C 8,9 C 95 % 1011,4 hPa 0,0 l/m 0 min 0 min 0 W/m 16,1 km/h (3 Bft) 100,00 %
24.10.2022 22:58 13,2 C 12,2 C 8,9 C 95 % 1011,5 hPa 0,0 l/m 0 min 0 min 0 W/m 19,3 km/h (3 Bft) 100,00 %
24.10.2022 23:00 13,2 C 12,2 C 8,9 C 95 % 1011,5 hPa 0,0 l/m 0 min 0 min 0 W/m 16,1 km/h (3 Bft) 100,00 %
24.10.2022 23:02 13,2 C 12,2 C 8,9 C 95 % 1011,5 hPa 0,0 l/m 0 min 0 min 0 W/m 12,9 km/h (3 Bft) 97,22 %
24.10.2022 23:04 13,2 C 12,2 C 8,9 C 95 % 1011,6 hPa 0,0 l/m 0 min 0 min 0 W/m 12,9 km/h (3 Bft) 100,00 %
24.10.2022 23:06 13,1 C 12,2 C 8,9 C 95 % 1011,6 hPa 0,0 l/m 0 min 0 min 0 W/m 12,9 km/h (3 Bft) 100,00 %
24.10.2022 23:08 13,2 C 12,2 C 8,9 C 95 % 1011,6 hPa 0,0 l/m 0 min 0 min 0 W/m 9,7 km/h (2 Bft) 100,00 %
24.10.2022 23:10 13,1 C 12,2 C 8,9 C 95 % 1011,6 hPa 0,0 l/m 0 min 0 min 0 W/m 3,2 km/h (1 Bft) 97,87 %
24.10.2022 23:12 13,1 C 12,2 C 8,9 C 95 % 1011,6 hPa 0,0 l/m 0 min 0 min 0 W/m 6,4 km/h (2 Bft) 100,00 %
24.10.2022 23:14 13,1 C 12,2 C 8,9 C 95 % 1011,6 hPa 0,0 l/m 0 min 0 min 0 W/m 6,4 km/h (2 Bft) 100,00 %
24.10.2022 23:16 13,1 C 12,2 C 8,9 C 95 % 1011,6 hPa 0,0 l/m 0 min 0 min 0 W/m 6,4 km/h (2 Bft) 100,00 %
24.10.2022 23:18 13,1 C 12,2 C 8,9 C 95 % 1011,7 hPa 0,0 l/m 0 min 0 min 0 W/m 9,7 km/h (2 Bft) 100,00 %
24.10.2022 23:20 13,1 C 12,2 C 8,9 C 95 % 1011,6 hPa 0,0 l/m 0 min 0 min 0 W/m 3,2 km/h (1 Bft) 97,87 %
24.10.2022 23:22 13,1 C 12,2 C 8,9 C 95 % 1011,6 hPa 0,0 l/m 0 min 0 min 0 W/m 6,4 km/h (2 Bft) 100,00 %
24.10.2022 23:24 13,1 C 12,2 C 8,9 C 95 % 1011,7 hPa 0,0 l/m 0 min 0 min 0 W/m 9,7 km/h (2 Bft) 98,15 %
24.10.2022 23:26 13,1 C 12,2 C 8,9 C 95 % 1011,7 hPa 0,0 l/m 0 min 0 min 0 W/m 16,1 km/h (3 Bft) 100,00 %
24.10.2022 23:28 13,1 C 12,2 C 8,9 C 95 % 1011,7 hPa 0,0 l/m 0 min 0 min 0 W/m 9,7 km/h (2 Bft) 97,87 %
24.10.2022 23:30 13,1 C 12,2 C 8,9 C 95 % 1011,8 hPa 0,0 l/m 0 min 0 min 0 W/m 6,4 km/h (2 Bft) 97,87 %
24.10.2022 23:32 13,1 C 12,2 C 8,9 C 95 % 1011,8 hPa 0,0 l/m 0 min 0 min 0 W/m 12,9 km/h (3 Bft) 100,00 %
24.10.2022 23:34 13,1 C 12,2 C 8,9 C 96 % 1011,8 hPa 0,0 l/m 0 min 0 min 0 W/m 3,2 km/h (1 Bft) 100,00 %
24.10.2022 23:36 13,1 C 12,2 C 8,9 C 96 % 1011,6 hPa 0,0 l/m 0 min 0 min 0 W/m 3,2 km/h (1 Bft) 100,00 %
24.10.2022 23:38 13,1 C 12,2 C 8,9 C 96 % 1011,7 hPa 0,0 l/m 0 min 0 min 0 W/m 3,2 km/h (1 Bft) 100,00 %
24.10.2022 23:40 13,0 C 12,2 C 8,9 C 96 % 1011,7 hPa 0,0 l/m 0 min 0 min 0 W/m 6,4 km/h (2 Bft) 97,87 %
24.10.2022 23:42 13,0 C 12,2 C 8,9 C 96 % 1011,6 hPa 0,0 l/m 0 min 0 min 0 W/m 6,4 km/h (2 Bft) 93,62 %
24.10.2022 23:44 13,0 C 12,2 C 8,9 C 96 % 1011,7 hPa 0,0 l/m 0 min 0 min 0 W/m 9,7 km/h (2 Bft) 96,00 %
24.10.2022 23:46 13,0 C 12,2 C 8,9 C 96 % 1011,8 hPa 0,0 l/m 0 min 0 min 0 W/m 16,1 km/h (3 Bft) 95,65 %
24.10.2022 23:48 13,0 C 12,2 C 8,9 C 96 % 1011,8 hPa 0,0 l/m 0 min 0 min 0 W/m 9,7 km/h (2 Bft) 97,87 %
24.10.2022 23:50 12,9 C 12,2 C 8,9 C 96 % 1011,8 hPa 0,0 l/m 0 min 0 min 0 W/m 6,4 km/h (2 Bft) 97,87 %
24.10.2022 23:52 12,9 C 12,2 C 8,9 C 96 % 1011,8 hPa 0,0 l/m 0 min 0 min 0 W/m 6,4 km/h (2 Bft) 95,74 %
24.10.2022 23:54 12,9 C 12,2 C 8,9 C 96 % 1011,8 hPa 0,0 l/m 0 min 0 min 0 W/m 16,1 km/h (3 Bft) 97,87 %
24.10.2022 23:56 12,9 C 12,2 C 8,9 C 96 % 1011,8 hPa 0,0 l/m 0 min 0 min 0 W/m 16,1 km/h (3 Bft) 97,87 %
24.10.2022 23:58 12,9 C 12,2 C 8,9 C 96 % 1011,9 hPa 0,0 l/m 0 min 0 min 0 W/m 12,9 km/h (3 Bft) 93,48 %
_ Min-Zeit 23:50 06:20 19:04 15:26 05:04 - - - - 05:04 00:56
Minimum _ 12,9 C 12,2 C 8,9 C 73 % 1005,3 hPa - - - - 0,0 km/h (0 Bft) 34,04 %
_ Max-Zeit 15:30 11:30 15:22 00:04 23:58 18:52 11:28 14:22 15:18 12:14 01:36
Maximum _ 19,1 C 21,1 C 14,4 C 96 % 1011,9 hPa 0,4 l/m 2 min 2 min 518 W/m 48,3 km/h
S (6 Bft)
100,00 %
Durchschnitt _ 15,2 C 14,5 C 10,8 C 88 % 1008,0 hPa #3,6 l/m #1:42 h #2:12 h 104 W/m 14,6 km/h (3 Bft) 95,78 %
© 2022 W. Hausmann